GFSWCAN_sfc_30mbdewp_000.txt.gz
Dewpoint
46 44 44 45 46 46 47 46 46 45 44 43 44 44 44 44 43 44 41 44 41 35 36 38 36 35 34 31 28 28 29 38 39 40 38 36 32 34 36 37 38 35 39 40 39 34 31 46 45 35 42 44 45 45
46 46 45 46 46 46 46 46 45 45 44 43 44 44 44 43 43 44 41 42 44 40 37 40 39 39 37 36 33 31 27 28 41 36 38 40 40 39 39 37 41 37 42 40 42 41 46 47 46 46 45 42 43 42
46 46 47 47 47 46 45 45 45 45 44 43 44 44 44 44 44 44 42 40 41 39 37 36 33 34 36 37 37 32 28 35 33 37 37 40 41 43 38 40 41 44 46 41 43 42 42 42 44 45 46 45 45 46
45 45 45 45 46 45 45 45 45 44 44 44 43 43 43 45 45 45 43 41 42 38 34 33 36 35 36 36 36 36 29 31 33 38 35 38 38 42 39 44 44 45 46 43 43 41 39 38 42 44 42 42 41 43
45 45 46 44 46 45 45 44 45 44 43 43 43 44 44 45 45 45 44 44 42 37 33 33 34 35 37 36 35 34 32 31 31 33 35 30 39 37 41 45 44 43 47 41 40 43 43 39 42 43 40 40 41 40
46 46 47 46 46 46 45 44 45 44 43 43 44 45 45 45 46 40 39 43 44 42 39 31 35 34 36 34 33 32 31 32 34 31 27 33 36 40 41 42 42 47 51 49 41 43 43 41 40 39 36 36 37 38
46 46 46 46 46 46 44 44 44 43 44 44 45 45 45 45 45 36 37 42 44 42 38 34 34 37 35 32 32 32 32 33 33 27 27 31 28 41 40 38 40 44 46 45 45 44 38 39 37 37 37 37 37 37
46 45 45 45 45 44 45 44 44 44 43 44 45 45 46 46 44 39 38 43 44 36 38 33 33 33 32 28 28 33 29 31 29 26 28 32 39 42 38 41 41 42 42 41 42 42 42 43 41 40 40 39 39 39
47 45 45 45 45 44 44 44 43 43 43 44 44 45 43 41 36 39 47 45 41 37 34 36 35 30 33 27 30 33 32 26 30 37 41 41 41 40 42 42 43 42 40 40 42 42 42 42 42 42 41 39 39 41
46 46 46 45 45 44 43 43 43 43 44 44 41 39 37 40 45 46 40 36 37 37 36 32 36 30 30 32 29 31 31 28 28 36 43 42 43 45 46 46 45 45 44 42 40 41 43 43 44 43 42 42 43 44
46 46 46 45 43 43 43 43 43 44 42 42 40 39 42 45 39 38 35 35 37 35 37 36 34 27 31 31 32 33 26 26 30 34 38 39 40 44 47 46 46 47 46 46 46 46 47 47 46 46 46 47 46 46
45 45 45 44 44 43 43 44 44 44 44 43 43 44 43 39 35 34 31 32 34 31 33 32 28 31 32 35 32 32 26 26 23 37 38 38 43 46 47 46 46 47 47 47 48 48 49 48 48 47 48 48 49 49
45 44 45 45 44 44 44 44 44 46 46 43 39 35 34 33 30 31 30 32 32 34 35 34 27 33 35 31 30 29 27 27 38 37 38 42 45 47 47 45 46 46 46 46 48 49 47 46 46 48 48 48 47 47
45 45 45 45 45 44 44 45 45 44 42 37 35 33 34 32 35 36 36 36 37 38 38 36 32 31 34 28 31 27 30 36 32 36 36 42 46 47 46 45 44 44 45 45 45 46 45 46 46 46 47 49 48 47
44 45 46 46 46 45 45 45 45 43 40 36 35 31 33 37 40 40 41 40 39 40 38 34 33 34 33 29 32 29 32 34 37 39 41 45 46 46 45 45 45 45 45 44 44 44 44 44 44 45 47 47 50 49
43 42 44 45 44 44 44 44 43 43 40 37 37 37 38 37 37 39 38 37 40 39 38 34 29 28 28 34 35 36 34 34 40 44 45 45 46 46 46 47 47 46 46 45 44 44 44 43 44 44 45 47 49 49
43 41 46 46 45 45 44 41 42 40 36 37 37 40 40 39 38 39 40 38 40 37 34 34 30 31 32 36 36 40 38 41 44 44 45 45 45 45 46 46 46 46 45 44 44 44 44 44 44 43 41 43 48 50
41 44 45 45 46 43 42 42 39 37 37 38 37 37 40 39 38 37 38 39 36 37 36 35 37 37 36 34 37 40 41 43 43 44 45 46 46 46 46 46 46 46 44 44 43 43 43 41 40 41 42 43 45 46
42 43 44 46 46 43 40 39 38 33 34 36 38 38 38 37 37 37 38 40 37 38 35 37 36 36 37 39 38 41 42 44 44 44 44 45 45 47 48 47 46 46 45 43 41 41 41 42 40 41 43 44 42 44
45 46 46 47 45 41 36 35 40 36 34 36 37 36 38 36 37 39 37 39 35 34 36 36 37 39 39 41 42 43 44 45 45 44 41 43 46 48 48 47 46 46 44 43 41 40 37 36 37 38 40 42 42 41
45 44 47 46 42 39 39 38 35 37 38 36 36 37 37 38 38 37 36 39 33 32 37 40 41 43 43 44 44 45 45 44 44 46 46 46 47 48 47 47 45 42 39 36 34 33 35 35 37 38 37 37 37 38
44 47 43 43 39 37 37 39 37 38 37 36 36 37 35 36 36 36 38 36 36 39 39 39 39 40 40 41 42 43 44 47 48 48 48 47 46 43 38 36 30 28 28 30 31 31 31 33 34 35 35 35 36 35
45 43 40 39 35 34 34 38 35 36 34 35 35 33 34 35 37 39 35 37 37 39 41 43 44 45 45 46 47 48 49 48 47 47 47 47 42 32 28 28 28 27 26 27 28 29 30 32 31 31 31 31 31 30
44 40 37 35 35 34 37 35 36 36 36 35 34 34 35 37 39 39 38 40 42 44 46 47 47 45 45 46 45 46 47 47 46 41 45 38 27 29 29 29 29 29 28 27 26 27 29 31 31 30 30 32 33 34
38 37 37 35 36 35 35 35 35 36 35 36 34 35 36 39 38 38 38 39 42 42 44 46 46 46 45 45 44 42 44 45 37 32 40 37 31 29 29 29 29 29 30 25 25 27 29 31 30 30 33 38 40 41
36 37 36 36 36 35 36 35 35 35 36 36 37 39 38 39 38 36 38 42 43 43 43 43 43 41 38 40 33 31 31 31 29 27 29 32 28 27 27 26 25 24 27 29 28 27 30 30 29 29 32 39 39 38
37 39 40 39 39 38 38 39 40 37 37 36 37 39 38 34 34 36 41 43 41 42 45 45 41 37 34 31 31 32 32 32 32 31 31 30 31 31 29 25 24 25 28 28 28 29 30 30 29 28 28 33 39 39
40 41 39 40 39 41 39 39 39 37 36 40 39 35 34 34 34 38 40 42 41 35 33 32 32 32 31 31 31 30 30 32 32 33 32 31 30 29 29 28 28 27 28 28 30 31 31 30 29 29 29 28 31 38
41 44 44 38 39 41 40 33 29 31 34 37 34 34 35 39 40 39 37 34 32 31 30 29 29 30 29 29 30 30 30 28 25 24 24 24 24 25 28 27 27 27 30 32 32 32 33 33 33 34 34 34 34 34
38 41 39 36 33 34 36 36 31 34 37 38 38 36 35 36 37 37 34 31 30 30 30 30 29 28 28 28 28 28 28 28 27 26 25 25 26 27 29 29 29 31 32 31 30 31 32 31 31 31 31 32 33 34
43 42 40 40 35 35 39 44 41 35 37 38 39 38 37 37 40 45 43 35 32 31 29 28 28 30 29 28 29 28 26 27 29 29 29 29 30 30 31 30 30 30 29 28 27 27 29 30 29 28 28 27 27 28
43 41 42 38 38 42 44 40 38 39 40 42 44 45 45 43 41 44 47 46 39 30 29 29 27 27 28 28 28 28 29 28 29 31 31 30 28 28 27 26 25 25 24 22 22 22 22 24 25 24 23 23 23 23
41 42 43 43 40 39 42 40 42 42 44 44 44 45 45 43 40 44 50 44 34 29 29 29 27 26 25 24 25 26 28 28 29 28 26 25 25 24 23 23 23 22 22 22 21 22 22 22 22 22 22 23 23 24

GFSWCAN_sfc_30mbdewp_006.txt.gz
Dewpoint
46 45 45 45 44 45 45 45 45 45 46 45 45 45 44 44 43 44 43 45 41 36 36 35 30 27 31 32 28 30 29 33 34 38 31 25 24 23 22 29 37 35 33 28 33 34 29 46 44 41 46 48 46 44
45 46 46 45 45 45 45 44 45 46 45 45 44 45 44 44 43 45 41 43 45 40 35 36 34 32 32 28 28 30 29 30 28 37 39 38 38 35 28 23 37 31 31 30 35 32 48 47 48 50 48 48 48 48
46 46 46 46 45 46 45 43 45 46 45 45 44 44 43 44 44 45 42 42 41 37 34 32 30 29 31 30 34 30 29 29 35 35 33 40 41 41 37 35 33 39 41 39 43 46 46 48 48 48 48 48 48 48
46 46 46 47 46 46 46 45 45 45 45 44 43 43 42 43 42 43 42 42 40 37 29 22 28 28 29 29 29 32 31 33 36 36 40 39 41 42 41 45 45 45 46 43 44 47 44 47 48 49 48 49 49 49
46 46 46 46 45 45 46 46 45 44 44 43 42 43 42 43 43 44 43 40 41 38 26 25 25 31 31 27 31 31 32 30 35 35 43 39 35 38 43 46 46 47 48 42 39 48 49 46 46 46 45 45 47 47
46 46 45 45 45 45 45 44 43 44 43 44 43 44 43 42 44 39 33 42 42 39 29 24 29 32 35 33 30 32 34 35 35 33 43 42 35 41 45 43 44 47 50 52 48 49 47 46 43 41 41 42 42 42
47 46 46 45 45 45 44 44 44 43 43 44 44 44 44 45 41 36 35 37 42 38 34 31 30 33 36 36 35 34 35 35 33 33 39 42 42 45 42 41 44 47 48 47 46 45 45 47 46 44 40 39 39 39
46 46 45 46 44 44 44 44 44 43 43 43 44 45 45 45 44 36 39 42 40 40 35 33 32 35 34 30 31 33 33 34 33 31 39 43 45 43 41 44 45 46 47 48 48 47 43 45 49 48 42 39 39 42
47 46 46 45 44 44 44 44 44 44 44 44 45 44 41 38 33 38 44 47 42 37 34 34 32 31 33 29 32 33 30 28 33 37 45 44 42 40 44 45 46 46 46 48 49 49 48 48 47 45 45 41 40 41
46 46 46 45 44 43 44 45 45 45 46 44 42 38 35 38 45 44 45 38 38 38 37 33 31 32 34 32 28 28 30 31 35 42 43 41 41 46 47 49 48 48 49 49 45 44 46 47 48 46 45 45 43 43
46 46 46 46 45 45 45 45 45 44 43 39 38 38 40 43 41 37 34 35 38 36 35 35 36 35 38 36 32 33 31 33 33 38 40 39 38 44 48 48 50 48 50 51 49 49 49 47 44 44 45 45 45 45
46 46 46 46 46 46 46 46 46 42 41 42 43 44 42 39 37 34 33 35 37 33 35 36 36 36 37 38 35 33 28 30 30 39 38 36 40 45 47 47 48 50 50 49 46 44 44 44 45 45 45 46 46 46
45 45 46 46 46 46 46 46 46 46 45 44 41 38 37 36 34 34 32 33 35 35 36 37 36 35 40 36 33 32 29 33 36 36 37 41 45 45 47 46 46 46 45 44 42 41 40 41 43 45 46 47 46 46
45 44 44 44 45 46 47 48 47 45 43 39 36 33 33 33 36 37 38 38 38 38 39 38 36 38 34 31 32 30 34 34 33 33 37 43 45 46 47 46 42 41 41 41 41 40 40 40 41 44 47 48 47 48
45 44 43 42 44 46 48 45 45 46 43 37 35 31 34 37 40 38 39 37 37 38 39 34 32 32 32 32 32 32 32 35 38 37 42 45 47 46 46 45 44 43 42 42 42 41 41 41 40 42 46 48 49 49
44 43 40 42 46 48 47 44 44 44 41 41 39 38 38 35 34 34 35 35 38 38 39 33 30 30 33 35 35 37 35 34 39 42 46 47 47 46 48 46 46 45 44 43 42 43 41 41 44 44 43 44 46 49
45 38 43 46 47 48 44 43 43 41 38 36 36 37 37 35 34 33 35 37 39 36 33 33 34 35 36 35 37 38 34 36 45 46 48 48 48 48 49 47 47 46 46 46 44 44 46 44 41 41 42 44 44 45
40 41 45 46 47 45 42 41 39 35 34 33 32 33 36 35 36 36 37 38 38 38 37 37 36 35 36 35 36 42 43 47 48 48 48 48 49 49 47 47 48 47 47 46 46 44 44 43 36 36 38 41 38 36
44 46 46 47 46 44 40 38 40 33 32 33 34 34 35 34 37 38 38 39 40 41 37 34 35 35 39 42 43 44 45 46 46 45 46 49 49 48 49 48 47 47 45 43 40 38 40 41 40 38 36 36 35 36
47 46 46 46 46 41 36 38 39 35 33 35 35 35 36 36 37 37 37 37 36 35 35 34 36 38 38 40 42 42 43 45 47 44 45 47 44 45 45 42 39 38 36 35 33 33 34 34 33 34 35 36 36 36
45 44 46 44 41 41 38 37 36 38 38 34 35 37 36 36 37 37 37 35 34 34 33 36 36 39 45 45 44 44 46 47 47 47 45 43 39 35 34 33 33 32 31 31 31 30 30 30 30 30 31 31 31 32
45 46 43 42 39 39 39 39 38 38 36 36 36 36 36 37 39 40 41 41 42 44 44 45 45 45 45 47 49 49 50 48 47 47 47 46 38 37 35 32 31 30 30 30 29 29 28 28 28 26 27 28 29 30
47 45 42 41 39 38 38 41 39 39 38 38 38 37 38 40 42 44 41 43 44 47 48 47 47 47 47 48 47 47 45 44 45 47 47 46 36 33 32 31 29 29 29 29 29 28 27 28 27 26 26 27 29 31
45 43 41 40 40 38 40 40 40 40 40 39 38 37 39 41 43 41 40 43 44 47 47 46 46 43 39 37 34 35 34 32 31 34 37 33 31 32 32 30 29 29 29 29 28 27 26 26 27 25 25 25 29 30
40 39 40 39 41 39 38 38 39 38 38 39 40 39 40 43 39 39 39 40 44 45 42 40 35 33 32 31 30 31 32 30 29 28 32 32 33 31 30 31 30 29 28 27 26 25 24 24 25 26 27 25 27 27
38 41 40 40 40 39 39 37 38 38 38 38 38 40 41 38 32 35 39 43 43 40 37 34 32 31 31 30 29 28 27 28 30 29 32 32 32 30 30 29 29 28 27 27 27 26 26 26 27 28 27 27 27 27
38 40 43 44 42 41 41 42 42 40 37 36 38 37 33 30 33 38 38 38 34 34 33 32 31 30 29 28 28 27 26 25 30 32 32 30 29 29 29 28 28 30 30 30 29 29 29 29 28 28 28 28 28 29
43 43 40 41 41 40 39 37 35 34 33 38 37 34 35 35 35 37 33 34 33 32 31 31 30 30 30 29 28 27 25 23 24 24 24 25 26 26 28 28 29 32 32 30 29 29 28 27 28 27 26 25 25 26
42 42 44 41 39 39 39 36 32 34 37 37 35 36 34 35 35 34 36 38 39 37 37 36 31 29 28 27 25 23 25 24 23 23 22 22 23 25 26 26 25 25 24 23 26 24 22 20 23 22 22 21 21 21
40 42 41 38 37 36 41 40 37 37 37 39 40 42 43 43 45 46 46 45 44 41 34 29 28 27 25 23 21 21 22 25 26 25 24 24 24 24 23 22 21 20 20 20 19 19 20 19 19 19 19 19 19 19
43 41 38 39 37 40 43 39 39 41 42 43 44 42 42 45 45 47 45 43 36 29 29 28 26 25 22 20 21 22 21 24 25 24 23 22 21 21 21 21 20 20 20 20 19 18 18 18 17 18 18 18 19 19
40 39 38 34 37 45 45 42 41 40 40 42 42 42 41 41 39 43 35 31 29 28 28 26 24 23 23 23 24 24 25 24 23 23 23 22 21 20 20 19 19 19 19 18 17 17 17 17 17 18 18 18 18 18
36 33 34 32 31 31 40 42 42 42 41 40 42 42 40 39 38 42 33 30 28 27 26 25 23 22 23 23 24 23 23 23 24 24 24 23 24 22 19 18 18 18 18 17 17 17 17 17 17 17 18 18 18 19

GFSWCAN_sfc_30mbdewp_009.txt.gz
Dewpoint
47 47 47 46 46 46 46 45 45 44 46 46 46 45 45 45 45 44 42 45 42 37 36 35 32 29 27 27 26 37 26 31 29 29 26 21 18 17 19 21 22 20 24 23 26 25 24 43 40 35 46 47 47 46
47 47 47 47 47 47 47 46 46 44 46 45 45 44 45 44 44 44 41 44 45 39 36 37 35 33 31 29 26 25 28 32 30 34 36 38 38 39 24 23 22 22 24 24 25 28 47 48 46 48 47 46 46 46
47 47 47 47 47 46 46 46 46 46 45 45 44 44 43 44 44 44 41 44 42 40 37 32 29 30 31 30 29 25 26 29 30 37 34 37 41 46 39 30 25 32 29 29 40 46 47 47 47 48 49 48 47 48
47 46 47 47 46 46 46 46 45 45 45 44 44 43 43 42 44 44 44 45 43 39 32 25 24 24 25 26 29 28 29 32 34 34 35 39 39 47 43 46 47 48 49 37 45 47 48 49 50 50 51 50 49 51
48 47 46 46 46 45 45 45 45 44 44 43 43 43 43 43 43 43 44 44 45 40 31 28 27 28 25 22 26 27 26 29 29 34 38 41 39 43 45 49 44 49 48 49 43 47 47 47 47 48 49 49 50 51
47 47 47 47 46 45 45 45 44 44 43 44 44 44 43 43 44 41 40 42 42 43 35 23 28 29 33 24 29 29 28 31 34 39 38 43 41 39 45 44 46 50 51 53 50 49 45 45 44 45 43 44 45 46
47 47 47 46 46 45 45 45 44 44 43 43 43 44 45 45 41 40 39 38 37 37 34 31 33 34 36 31 30 32 33 35 40 40 37 43 41 44 43 41 46 49 50 49 49 48 47 45 46 47 43 39 39 38
47 47 46 46 46 45 45 45 46 45 45 44 44 45 45 46 44 38 40 41 39 39 39 33 33 37 35 32 31 33 33 34 41 39 42 42 44 46 41 46 46 48 49 48 47 49 48 50 51 49 49 49 39 40
47 46 46 46 45 45 45 46 46 45 46 46 46 46 42 40 33 43 44 45 41 39 35 35 34 34 34 38 34 30 28 27 35 33 43 45 41 40 44 45 48 48 48 49 49 49 49 47 46 48 50 47 46 42
47 47 47 47 46 46 46 46 46 45 45 45 44 40 37 36 43 44 46 42 41 39 38 34 33 36 37 31 24 24 28 30 32 42 45 41 40 45 47 47 49 49 48 48 46 47 48 48 48 49 46 46 49 48
46 46 46 47 46 46 46 47 47 47 43 39 37 36 39 42 40 41 39 38 39 36 36 37 39 37 37 38 34 40 40 36 37 40 42 38 37 44 47 47 48 50 50 48 49 49 50 50 51 48 48 48 49 46
45 45 45 45 46 46 46 47 48 44 41 42 41 42 42 40 39 36 36 38 37 36 42 41 40 37 35 38 40 37 36 41 35 44 38 35 40 46 46 46 48 49 48 48 47 47 47 44 45 47 48 47 46 46
45 45 45 45 44 45 46 48 48 48 46 44 44 40 38 38 35 34 33 36 37 39 42 42 40 35 38 41 41 42 32 35 38 39 36 39 42 47 47 48 47 47 45 45 44 44 41 41 44 45 46 45 45 46
47 47 46 45 44 46 47 49 46 45 43 39 37 34 34 35 37 37 37 37 39 37 36 40 38 36 34 32 34 31 38 38 35 35 37 42 45 46 47 45 42 41 40 40 40 40 39 40 42 45 46 47 47 49
46 46 46 45 46 46 47 48 45 46 43 38 37 32 36 39 40 40 39 35 33 33 34 39 33 31 32 33 34 34 33 35 36 38 41 44 46 47 44 42 40 39 40 41 39 38 38 39 41 42 45 46 47 49
45 45 42 44 46 46 47 46 45 44 44 43 40 37 35 34 32 31 33 32 35 36 36 33 31 33 34 36 38 36 35 33 37 44 46 46 46 44 45 45 42 41 40 41 39 39 39 39 40 40 40 41 42 46
45 38 44 46 46 46 46 44 41 37 35 33 32 29 31 31 32 34 35 35 37 33 31 31 35 35 35 35 37 37 35 38 43 45 48 48 46 46 45 45 44 42 42 41 41 42 42 40 40 40 39 40 40 41
39 40 44 46 47 44 41 38 36 29 27 28 29 30 32 33 35 35 36 37 37 35 34 34 35 35 35 36 37 42 45 48 47 48 49 48 48 47 48 47 46 45 44 42 41 41 42 39 36 35 36 38 38 36
44 45 47 47 46 45 37 36 38 30 28 30 31 32 32 34 36 35 36 37 36 35 34 35 35 37 39 42 42 44 46 48 47 48 48 48 48 47 46 46 44 43 40 39 37 36 37 37 36 35 34 35 34 35
47 47 46 45 45 40 35 35 36 32 30 32 32 32 32 34 34 35 33 33 33 33 33 33 34 37 38 42 44 46 48 50 48 45 42 43 41 40 39 38 37 37 35 35 34 32 33 32 32 31 31 32 32 33
45 45 45 43 41 40 38 36 34 35 35 33 33 33 33 37 38 40 42 37 36 37 38 42 45 46 46 48 49 48 47 47 46 46 41 38 36 35 35 34 34 33 32 32 31 30 29 29 28 27 27 28 28 29
45 46 44 42 42 41 41 40 38 38 38 34 38 39 39 40 40 41 42 42 43 46 46 47 48 48 46 46 46 44 47 47 48 48 45 44 39 38 36 33 32 31 30 30 28 28 27 28 28 25 25 25 27 28
46 46 44 43 42 42 41 42 40 40 39 39 39 38 39 40 43 44 41 44 45 47 48 46 46 45 40 37 37 35 36 35 33 35 35 34 34 34 32 31 29 29 29 29 28 28 27 26 26 25 26 25 25 28
46 44 43 42 42 41 41 40 40 39 38 37 39 39 39 41 44 42 40 43 45 46 42 39 35 35 33 35 32 32 31 30 29 30 32 30 30 31 32 31 29 29 29 28 27 27 26 24 24 24 26 26 25 26
42 41 43 41 43 40 36 36 37 34 34 36 37 36 38 41 36 38 40 42 41 35 35 34 33 33 31 30 29 28 28 26 28 28 31 30 30 29 29 29 31 31 30 29 28 27 25 25 25 26 26 26 27 26
40 43 40 37 37 36 35 33 34 34 35 33 34 35 37 36 33 36 39 38 34 33 33 33 32 31 30 30 28 26 24 24 27 28 29 27 27 27 27 27 27 29 30 29 27 26 26 26 25 26 25 25 26 26
36 37 42 45 41 40 38 37 37 34 32 33 33 33 31 32 35 34 35 34 33 33 33 33 32 31 30 29 28 27 25 23 24 25 24 28 27 27 27 25 27 27 27 27 26 24 25 24 22 23 23 23 23 22
41 42 39 39 39 38 37 33 31 31 32 34 37 35 35 36 36 35 37 38 39 40 39 37 34 30 28 26 23 20 22 23 23 24 23 23 24 25 25 24 23 23 22 23 21 20 21 20 19 19 19 20 20 20
40 38 40 37 36 36 36 37 35 36 37 36 37 38 38 43 44 41 40 41 41 43 40 30 28 26 23 20 20 20 22 23 22 22 21 21 20 20 21 20 20 19 19 20 22 20 20 18 19 19 20 18 18 19
35 37 38 36 37 38 38 37 37 39 40 40 41 41 41 43 45 46 45 42 37 30 28 27 25 23 19 17 19 20 21 22 22 21 20 18 18 19 19 20 20 19 19 19 18 18 19 18 18 18 18 18 18 18
35 33 34 37 36 38 38 40 40 40 40 40 42 40 40 40 43 42 33 32 29 28 27 25 22 20 20 19 21 21 20 22 22 22 21 19 18 18 19 19 18 18 18 18 17 17 17 17 17 17 17 18 18 18
32 32 30 31 35 40 41 43 41 40 38 39 38 39 39 41 40 35 33 30 28 25 25 23 21 20 22 21 22 21 22 22 23 22 21 17 17 19 18 17 17 18 18 17 17 17 17 17 17 18 18 18 19 19
30 30 30 29 28 28 36 43 44 41 36 34 39 39 37 37 36 34 32 31 28 26 24 21 21 21 22 22 22 21 21 23 23 22 21 20 21 21 20 19 20 20 19 19 19 18 19 19 19 19 19 18 18 17

GFSWCAN_sfc_30mbdewp_015.txt.gz
Dewpoint
49 49 49 48 48 48 48 48 48 47 46 46 46 46 45 45 45 46 44 45 43 37 37 35 34 34 32 31 29 33 34 35 35 33 30 32 31 31 33 34 33 31 29 26 30 27 26 45 40 35 44 47 44 43
49 49 48 48 48 48 48 47 47 47 47 46 45 44 44 44 44 45 39 42 45 42 38 39 39 39 37 34 33 35 34 36 37 37 31 34 32 36 38 33 35 32 42 41 32 37 49 47 44 48 47 47 49 55
49 49 48 48 48 48 48 47 47 47 46 45 45 44 44 44 44 44 42 43 43 40 37 35 33 34 37 36 36 32 31 33 38 41 40 39 38 37 34 37 41 39 46 43 43 37 40 43 46 53 61 59 60 61
49 49 49 48 48 48 48 47 47 47 47 45 44 45 45 45 45 44 41 44 43 40 34 32 33 32 33 32 34 36 33 32 38 41 39 37 37 44 40 41 42 47 47 47 47 48 51 53 58 57 59 57 57 57
48 48 48 48 48 48 47 47 47 47 47 46 46 45 44 44 46 45 41 44 45 39 33 34 37 36 33 33 32 35 33 31 28 34 34 35 40 41 43 44 43 48 48 46 46 49 50 49 52 57 53 54 54 53
47 47 47 47 47 47 47 47 47 47 47 47 47 46 47 46 46 40 40 44 46 46 38 33 33 32 41 41 33 32 31 29 28 29 36 40 43 42 41 38 42 50 53 55 49 52 51 50 48 46 45 47 50 51
47 47 47 47 47 47 47 47 47 47 48 48 49 49 49 48 45 37 38 41 43 41 37 34 30 40 39 40 25 27 28 28 32 37 39 41 41 44 42 37 41 51 52 52 52 51 49 50 49 49 47 45 44 46
47 47 47 47 47 46 46 46 46 46 47 48 49 49 49 49 48 44 42 41 41 38 38 33 32 38 44 39 28 30 28 36 40 41 42 39 41 44 40 45 49 50 52 52 51 50 51 51 51 50 49 47 46 46
47 47 46 46 46 46 47 47 46 46 47 48 49 49 47 45 40 43 44 43 43 38 36 36 33 33 44 41 42 40 34 32 44 39 38 42 40 39 44 45 48 50 49 50 50 50 48 48 49 49 49 50 48 45
47 47 47 47 46 47 48 48 48 47 48 48 47 42 41 44 49 49 45 42 40 40 38 35 37 36 41 41 38 37 36 38 37 39 44 38 39 44 47 48 50 50 50 51 47 46 48 48 49 48 49 52 52 48
47 47 47 47 47 48 48 48 48 48 48 43 40 37 42 48 46 43 37 37 39 36 39 38 40 40 43 39 39 42 38 40 34 38 38 34 36 41 48 48 49 50 50 51 49 49 48 48 47 46 48 51 53 52
47 47 47 47 47 48 48 47 48 46 43 43 43 44 44 43 42 38 36 36 33 34 40 40 41 44 45 45 39 41 39 39 34 42 37 32 40 45 46 48 48 49 50 49 50 48 46 43 44 45 47 50 50 52
47 47 47 47 47 47 47 48 48 49 48 46 45 44 40 40 34 35 32 35 35 39 43 43 42 42 44 45 42 39 37 38 43 37 32 36 41 44 46 48 47 48 47 46 45 47 48 48 48 49 49 50 50 51
47 47 47 47 47 46 47 47 48 48 46 42 39 35 38 37 38 38 39 40 41 44 44 45 45 43 44 42 41 38 41 41 37 33 33 42 46 48 48 46 46 46 46 43 47 48 47 48 48 49 51 51 50 50
48 47 47 46 46 47 47 47 48 47 46 41 39 33 34 37 38 38 38 42 44 45 46 43 42 40 40 39 39 39 37 34 35 35 41 46 47 46 45 45 44 40 40 44 44 43 44 47 48 47 48 50 50 49
48 47 46 47 46 46 47 48 48 48 44 40 37 34 35 39 39 39 37 36 38 38 39 41 39 38 39 38 36 34 34 32 37 43 46 47 47 48 49 47 48 46 46 45 44 47 45 44 44 45 48 46 45 48
47 45 46 45 47 47 48 46 45 39 31 34 35 38 42 40 40 40 39 38 39 37 36 39 38 38 39 36 36 39 37 41 44 46 47 47 47 47 47 46 47 47 45 46 44 44 45 40 44 44 42 41 43 48
45 45 45 46 47 47 48 45 39 33 31 37 37 38 40 44 44 41 41 42 39 39 38 38 40 39 38 37 39 42 44 46 47 47 47 46 45 44 45 45 47 44 43 43 44 40 38 35 34 35 34 37 37 37
44 45 46 47 48 47 44 36 39 34 34 37 40 40 42 44 45 44 43 43 43 42 40 40 41 40 42 44 44 44 45 45 44 45 46 47 47 45 43 46 44 42 38 35 35 36 35 33 31 32 33 32 32 36
47 47 47 48 48 45 37 37 40 34 35 39 42 42 43 43 43 41 41 42 41 40 39 39 39 42 43 43 44 44 43 44 42 41 39 41 44 44 44 41 36 37 36 34 32 32 31 30 29 30 31 29 30 33
48 47 47 47 48 45 39 38 38 39 40 40 42 42 42 42 40 40 40 41 40 41 40 41 40 41 40 38 39 39 42 45 42 41 40 39 40 38 36 36 34 34 32 32 32 30 29 28 28 29 30 29 31 32
48 48 49 47 44 43 43 43 40 42 42 40 40 40 40 39 39 40 41 40 42 41 41 41 41 39 36 35 36 35 36 40 38 34 33 36 37 35 34 34 34 33 32 32 32 31 30 30 28 29 31 29 31 31
48 49 48 45 43 44 41 44 41 40 38 38 40 38 40 41 43 43 41 41 41 41 42 42 42 41 39 39 34 32 33 32 35 32 31 31 35 37 34 33 31 31 32 32 31 30 30 30 29 30 30 31 31 32
48 47 45 45 45 40 42 41 42 40 39 38 38 38 40 42 42 39 36 37 38 38 39 40 39 36 35 34 30 30 30 29 29 32 31 30 32 34 33 30 28 27 29 29 27 26 27 27 25 24 25 26 25 25
46 43 45 40 46 40 33 33 34 34 33 33 38 41 40 45 37 35 35 38 39 39 39 39 38 37 33 28 26 28 29 27 27 28 30 31 30 29 29 28 25 23 25 26 23 22 24 23 21 21 21 22 22 22
39 44 42 42 43 41 38 37 36 36 35 34 38 43 45 40 35 35 37 40 40 39 38 37 36 29 25 24 24 25 26 27 27 25 29 27 26 25 24 23 21 21 23 23 22 21 22 20 19 20 20 21 21 22
40 42 44 47 46 45 41 41 39 32 32 31 36 37 37 34 33 35 39 40 38 38 38 36 32 26 23 22 23 25 24 24 24 23 25 23 22 23 22 21 21 22 23 22 21 22 20 19 19 19 20 21 22 21
43 44 42 44 45 44 37 35 32 31 32 35 37 35 36 35 35 37 39 39 38 37 37 32 26 22 20 21 22 23 23 22 22 21 20 20 20 20 22 21 22 22 23 22 21 21 19 19 19 20 19 19 20 20
45 45 46 41 38 35 34 34 34 35 35 36 37 36 35 40 40 37 38 39 38 35 27 24 22 21 20 21 22 22 23 22 21 19 16 16 16 18 21 20 20 20 20 20 19 18 19 20 20 20 20 21 21 20
38 39 37 36 33 34 36 36 35 37 37 36 37 38 39 39 39 39 33 30 28 24 23 21 21 21 21 20 20 21 24 23 21 19 16 15 16 19 20 20 20 20 21 21 20 20 21 20 21 20 20 19 19 19
30 28 33 36 35 35 38 37 37 36 36 35 35 35 36 39 39 35 32 31 27 24 22 19 19 22 21 20 20 20 20 23 21 20 19 18 19 21 21 21 21 21 21 21 20 20 19 18 19 18 18 19 19 19
32 28 27 29 37 37 39 39 38 37 37 37 37 38 39 42 39 36 35 31 26 24 21 19 19 22 23 22 22 22 23 21 21 20 20 20 21 22 22 22 22 21 21 19 18 18 18 19 19 19 19 20 20 20
27 28 29 27 35 37 39 40 39 37 37 36 37 37 36 34 32 32 33 29 27 25 23 21 23 24 25 23 22 23 23 22 21 20 20 20 20 21 21 22 23 22 20 19 20 19 20 20 20 21 21 22 23 23

GFSWCAN_sfc_30mbdewp_021.txt.gz
Dewpoint
49 48 48 48 48 48 48 47 48 47 46 46 46 46 46 45 45 45 42 44 41 36 34 35 35 33 32 32 30 29 30 33 32 29 28 28 28 28 27 30 29 31 31 29 28 26 24 51 51 47 50 54 47 44
48 48 48 48 48 48 48 48 48 48 47 46 46 46 46 46 46 46 42 43 44 40 37 38 38 37 35 34 33 34 30 32 35 32 31 31 30 32 31 27 32 29 35 34 33 30 50 52 52 56 57 56 57 57
47 47 47 47 48 48 48 48 48 48 48 47 46 46 46 47 47 46 44 43 42 39 36 36 36 37 39 38 37 34 36 36 36 38 35 33 29 35 31 31 31 34 40 36 37 45 50 52 53 55 55 56 57 58
47 47 47 48 48 48 48 48 48 47 47 48 47 46 47 47 48 47 45 43 42 38 33 33 37 35 35 37 38 38 37 38 38 40 36 33 31 38 32 36 37 38 39 38 42 48 51 51 52 53 52 54 54 55
47 48 48 48 48 48 48 47 47 47 48 48 48 48 47 47 48 48 47 45 44 36 33 34 37 36 36 36 36 37 37 36 36 35 35 33 35 35 36 38 38 44 40 38 39 48 48 49 51 50 52 51 52 53
47 47 47 47 47 47 47 47 48 48 48 49 49 49 49 48 49 44 35 42 45 44 38 32 34 34 36 36 39 38 35 36 36 34 32 33 36 38 31 34 44 44 46 50 49 51 49 50 51 50 50 51 52 52
47 47 47 47 47 47 48 48 48 48 49 49 49 49 49 49 48 40 37 39 47 46 38 32 33 35 39 43 34 34 36 35 35 33 32 33 37 40 35 35 43 43 46 52 52 50 49 50 48 49 49 51 52 53
47 47 47 48 48 48 48 48 48 49 49 49 50 50 50 50 49 45 47 48 47 42 39 32 32 36 44 40 36 43 34 33 36 35 38 39 40 40 36 42 44 49 51 51 51 50 51 51 52 50 48 48 48 50
48 48 48 48 48 48 48 48 48 49 49 49 50 50 48 46 43 43 48 48 47 41 34 34 31 31 42 40 42 39 40 35 40 37 38 39 36 34 40 44 46 48 49 49 50 50 50 50 50 50 48 47 47 48
48 48 48 48 48 48 48 48 48 49 49 48 44 41 40 44 47 49 46 42 40 40 39 32 37 33 39 40 38 37 39 36 32 36 40 35 35 42 47 48 49 49 50 49 48 47 48 48 49 49 50 50 50 49
47 48 48 48 48 47 48 48 49 49 46 43 42 39 43 48 47 44 37 34 36 32 35 35 36 35 41 37 38 41 37 37 32 38 36 34 34 41 46 48 50 50 50 49 49 49 49 49 49 49 49 50 50 50
47 48 48 48 48 48 48 48 49 48 45 44 45 47 45 43 41 36 35 35 32 33 37 37 39 42 44 45 40 39 36 37 32 40 35 32 37 45 48 49 50 51 51 51 50 49 50 51 51 51 51 51 51 51
48 48 48 48 48 48 48 49 49 49 49 46 44 41 39 40 37 32 32 37 38 39 39 40 41 43 44 44 40 39 38 37 40 33 31 34 40 46 48 49 48 50 50 51 52 52 52 49 50 51 50 50 50 50
49 49 48 48 47 48 48 48 49 49 46 43 39 37 39 38 40 40 41 42 43 43 44 44 44 43 43 41 41 38 39 38 33 31 33 41 46 47 48 49 48 48 48 48 48 48 49 48 47 48 49 49 48 48
49 49 48 47 48 47 48 49 49 47 46 40 40 38 40 42 42 41 42 42 42 42 45 43 42 40 39 38 39 38 35 32 34 35 42 45 47 47 46 45 39 35 34 34 34 35 36 37 39 41 42 42 40 41
49 48 45 46 47 48 48 48 49 48 42 40 41 41 42 40 39 38 39 40 41 40 42 41 38 38 38 38 36 34 33 33 38 43 45 47 45 44 43 43 36 32 30 30 31 31 31 32 34 34 35 36 38 40
48 43 44 46 48 48 48 46 43 40 41 41 41 42 42 41 40 39 37 36 39 41 38 40 37 37 39 37 36 40 38 41 44 45 46 46 45 45 43 40 37 32 30 29 29 30 31 31 32 32 34 36 38 40
44 44 45 47 49 47 46 45 39 39 40 42 40 41 41 42 41 40 39 35 33 33 40 39 40 37 37 36 38 42 44 44 45 45 45 47 45 40 38 35 33 31 29 28 28 30 31 32 32 33 35 37 38 39
45 46 47 48 49 46 44 40 40 38 39 42 42 41 40 40 41 40 39 37 34 33 33 34 32 33 34 38 39 39 40 43 44 43 39 39 42 38 36 34 32 31 31 31 30 31 31 32 33 34 35 37 37 38
48 48 49 49 49 43 38 38 42 38 38 41 42 40 40 39 39 39 39 38 37 36 29 29 32 34 35 34 36 36 38 40 39 36 33 33 34 32 31 32 32 31 29 27 26 28 28 29 30 35 36 37 36 36
47 49 49 49 48 46 42 40 39 40 41 39 42 41 39 40 39 38 37 37 35 36 36 39 36 32 31 30 30 30 31 35 35 35 32 29 30 31 29 28 28 28 27 25 23 23 23 24 26 27 34 37 37 35
48 49 48 49 46 45 43 44 41 44 42 42 42 42 39 39 40 40 40 38 38 39 40 39 38 36 30 29 29 30 31 33 34 33 30 28 26 26 27 28 26 25 26 25 24 22 22 23 24 25 27 34 35 31
49 49 49 48 43 41 39 46 42 45 42 43 43 40 39 39 40 39 37 39 39 41 40 39 37 34 29 29 28 28 29 30 31 31 28 25 24 24 24 24 24 24 23 22 22 21 21 23 24 26 28 30 31 29
50 47 45 44 45 41 45 41 44 44 44 40 39 39 40 41 41 37 36 38 40 41 38 35 32 27 25 25 24 25 26 27 25 25 28 25 22 22 23 23 23 23 22 21 20 20 21 23 25 26 26 26 25 23
42 44 44 39 42 39 39 38 37 38 38 40 40 39 38 41 36 35 36 37 39 38 38 33 27 28 24 23 22 22 23 24 22 21 22 24 22 20 21 22 22 24 23 19 19 19 21 23 23 23 24 24 22 21
40 43 40 39 39 37 38 36 37 39 38 38 39 40 42 36 34 33 35 38 39 39 38 34 25 23 23 22 19 19 20 22 21 20 20 21 23 21 21 21 20 20 24 23 19 19 21 22 21 20 21 22 23 22
35 37 42 46 44 43 40 41 40 34 33 35 38 37 33 31 28 32 37 39 39 39 28 27 25 23 22 21 21 21 20 19 19 20 21 21 22 22 22 20 20 22 24 22 21 20 21 21 21 20 20 21 22 22
39 41 37 43 44 45 40 34 34 32 33 36 37 34 31 30 26 35 38 39 39 36 23 24 24 24 23 23 23 21 20 19 17 17 18 20 21 22 23 23 23 24 24 24 22 22 22 22 21 20 19 19 20 21
41 43 42 40 42 41 38 34 32 35 36 38 35 33 34 39 39 39 39 35 25 23 21 22 23 24 24 23 22 21 19 18 17 16 17 19 20 21 23 23 22 22 23 21 23 23 22 21 21 21 21 20 21 21
42 45 40 41 37 34 36 36 33 36 37 39 39 39 39 39 40 41 36 24 21 22 23 22 23 23 22 21 21 20 21 20 19 18 19 19 20 22 23 23 23 23 23 22 20 20 21 21 22 22 22 22 23 24
44 44 40 39 36 39 40 41 42 39 37 36 39 37 37 38 40 36 25 22 22 23 23 22 22 23 23 22 21 20 19 20 20 21 21 21 21 22 22 23 23 24 24 22 21 21 22 22 23 23 23 23 25 27
38 38 38 36 38 41 40 37 38 38 37 37 38 39 40 40 38 39 29 23 22 23 23 23 22 22 23 23 24 23 23 20 20 20 20 21 21 22 22 22 23 24 23 24 24 23 23 23 23 24 25 25 26 27
32 34 37 39 40 38 40 39 39 40 39 38 39 40 40 40 37 33 31 27 23 24 24 24 24 23 23 24 23 22 22 21 21 21 21 21 21 21 22 22 23 23 23 24 25 25 25 25 25 26 26 27 27 27

GFSWCAN_sfc_30mbdewp_024.txt.gz
Dewpoint
48 47 47 47 47 48 48 48 48 48 48 47 47 46 46 47 47 45 42 44 42 37 34 34 34 33 31 31 28 29 29 32 34 29 26 26 27 27 26 21 25 27 27 26 26 26 22 47 46 44 50 55 54 56
47 47 47 47 48 48 48 48 48 48 48 48 47 47 47 48 47 47 42 43 45 40 38 39 38 36 34 34 32 34 30 31 32 30 30 30 28 29 30 25 30 25 30 29 26 25 35 52 52 54 55 53 54 55
47 47 48 48 48 48 48 48 48 48 48 48 48 48 49 49 48 48 44 43 43 38 34 35 35 37 39 38 36 33 34 34 34 37 34 33 29 32 27 31 32 32 33 32 35 35 32 50 53 53 53 53 55 56
47 47 47 48 48 48 47 48 48 48 48 49 48 48 49 50 49 48 46 44 42 38 31 31 37 35 37 38 38 37 35 39 38 39 35 32 31 36 32 33 33 33 33 34 34 37 44 51 50 51 53 54 55 55
47 47 47 47 47 48 48 48 48 48 49 49 49 49 49 50 49 49 48 46 44 37 31 33 37 36 37 36 37 38 37 36 36 35 35 33 36 35 35 34 31 33 33 34 36 38 44 49 50 52 52 52 54 55
47 47 47 48 48 48 48 48 48 48 48 49 50 50 50 50 49 45 38 43 46 43 37 32 36 35 35 36 36 36 37 36 36 35 34 34 36 35 30 30 35 42 44 45 41 45 49 50 51 52 52 53 54 54
47 48 48 48 48 48 48 48 48 48 49 49 49 50 50 50 48 41 39 43 46 45 37 32 34 36 37 43 38 38 36 36 35 35 34 33 34 38 33 30 33 38 42 45 46 50 50 51 51 52 52 52 54 55
48 48 48 48 48 48 48 48 48 48 49 49 49 50 51 50 49 45 47 48 47 42 38 31 32 36 43 39 38 37 35 35 35 35 37 37 38 38 31 35 37 40 42 45 50 52 51 52 51 51 51 51 51 52
47 47 47 47 48 48 48 48 48 49 49 49 49 49 48 46 44 44 49 50 48 40 33 33 31 30 40 40 41 40 40 35 40 37 37 38 33 31 36 39 45 47 46 49 51 52 51 50 51 51 51 51 51 51
47 47 47 48 48 48 48 48 49 49 49 48 44 40 39 43 48 48 45 41 39 39 38 32 37 32 38 39 39 37 39 36 32 35 40 32 32 38 45 48 49 49 50 50 48 48 49 48 49 50 51 51 51 52
47 48 48 48 49 49 48 49 49 49 46 43 42 40 44 47 47 44 37 34 34 32 33 34 35 33 41 36 38 39 37 36 31 37 35 33 34 41 47 49 50 51 51 50 50 51 51 51 50 50 50 50 51 52
48 47 48 49 49 49 49 49 49 48 46 46 46 47 45 43 41 36 36 34 33 33 37 36 38 39 41 43 40 40 35 37 32 40 34 32 40 46 47 48 50 52 52 52 52 52 51 52 53 51 51 51 51 52
47 47 48 49 49 49 49 49 49 50 49 46 43 40 42 42 37 36 34 38 39 41 41 41 40 44 45 45 40 40 37 35 40 33 31 38 44 45 44 45 45 46 47 49 49 50 50 49 49 49 50 51 52 53
47 48 49 49 48 48 48 49 50 48 45 40 39 38 40 36 38 39 40 41 42 42 43 44 44 41 41 39 40 37 39 37 33 31 33 40 43 42 42 41 42 43 42 43 43 42 41 41 39 42 42 46 49 49
48 49 48 47 46 48 49 49 49 47 44 40 41 37 38 42 41 41 41 38 39 42 43 42 40 40 39 38 39 38 35 32 33 35 38 41 43 41 37 36 35 37 36 38 37 35 36 41 39 38 40 40 40 39
49 47 43 45 47 49 48 48 48 45 43 41 40 38 40 37 36 36 34 34 34 41 42 41 39 38 38 39 37 35 32 33 38 42 45 43 42 42 39 36 31 30 30 33 35 35 36 36 37 39 39 39 38 37
48 43 44 47 49 49 48 43 41 42 42 40 39 41 41 39 39 37 34 32 34 37 39 40 37 37 39 37 37 40 38 41 43 42 44 44 38 37 36 34 32 30 31 32 33 33 35 36 37 38 37 37 37 38
44 44 46 48 49 47 46 41 41 40 39 40 38 39 40 40 39 38 38 36 30 32 39 37 38 35 34 32 33 37 40 43 42 39 39 40 37 36 34 32 31 30 30 31 32 33 34 35 36 36 37 37 37 37
46 47 48 49 50 46 40 39 41 38 39 41 40 40 38 38 38 38 37 37 35 32 33 35 33 33 32 34 34 36 38 40 39 36 34 34 33 33 31 29 27 25 25 26 27 29 31 33 36 37 37 36 35 35
48 48 50 50 48 41 37 39 42 39 37 38 41 38 38 38 39 37 37 37 36 35 30 29 30 32 33 33 35 34 36 37 38 31 30 31 30 28 28 28 26 24 23 23 24 25 27 31 32 36 36 34 32 31
47 49 49 50 48 44 41 40 40 40 41 38 41 39 37 40 39 38 37 38 36 37 34 36 34 32 31 30 31 32 32 33 30 30 29 27 28 28 27 27 26 24 23 22 22 22 23 25 28 32 33 30 29 29
47 49 48 49 45 43 42 44 42 44 42 43 43 43 38 37 37 38 40 36 37 38 39 36 34 32 27 28 29 30 32 31 28 26 25 25 24 24 25 25 24 22 22 22 22 22 23 26 29 33 33 28 27 27
48 48 48 46 43 39 40 46 42 44 38 42 40 38 38 38 40 39 36 38 38 40 39 36 32 30 26 27 26 27 28 27 25 25 24 23 23 24 24 24 24 21 19 20 22 24 25 28 29 28 26 25 24 23
49 46 44 43 43 39 43 41 44 43 42 38 38 38 39 42 39 36 35 37 38 39 36 32 29 23 23 23 23 23 24 25 24 23 24 22 21 22 23 23 23 23 22 21 22 23 25 25 25 24 23 22 21 21
41 43 42 37 40 38 38 38 38 38 38 39 39 37 37 39 35 35 35 35 38 37 37 31 28 25 21 21 21 21 22 22 21 21 22 23 21 21 21 22 22 23 24 20 21 22 22 24 24 23 22 21 20 20
37 42 38 38 38 36 37 35 37 38 38 38 39 40 39 35 31 29 32 35 38 39 34 35 26 22 21 21 19 19 20 21 20 19 20 21 22 21 20 20 20 20 24 23 21 22 21 21 21 22 22 23 22 21
34 36 41 45 43 43 39 39 39 34 34 35 38 36 32 27 24 29 35 38 38 40 32 31 28 23 20 19 20 20 19 19 20 20 21 22 22 23 22 21 21 22 26 24 22 22 22 21 20 20 20 22 22 21
38 40 36 41 42 43 40 35 32 28 31 36 36 32 28 26 23 31 36 39 37 37 24 25 25 23 22 22 22 20 19 18 18 18 19 21 22 23 23 23 23 25 25 25 23 23 22 22 21 21 20 21 21 22
40 42 41 38 42 41 41 33 29 33 35 38 33 29 32 36 37 37 40 35 25 23 23 23 24 24 23 22 21 20 19 18 17 17 19 20 20 21 23 23 24 23 23 21 23 25 23 22 22 21 21 22 23 25
43 43 39 40 37 34 35 37 32 36 38 39 38 38 38 39 40 42 37 24 23 23 22 23 23 23 22 21 20 20 21 20 19 18 19 19 20 22 23 23 23 24 24 21 21 22 23 23 23 24 24 25 27 28
44 44 40 40 38 38 40 42 42 42 39 37 39 35 34 37 40 37 31 24 22 24 23 22 23 23 23 22 21 20 19 20 21 21 21 21 22 22 23 23 24 24 25 23 22 22 23 24 24 25 25 26 27 28
42 40 39 36 37 42 41 38 38 38 39 37 37 40 40 40 38 39 29 23 23 23 23 23 22 22 23 24 24 23 22 21 20 21 21 21 22 22 22 23 24 24 25 25 25 24 24 25 25 26 27 27 27 27
35 36 38 40 39 38 39 38 38 38 39 38 37 39 40 39 38 39 32 27 23 23 24 23 23 23 23 24 24 24 24 22 22 22 22 23 23 24 23 22 23 24 24 26 26 26 26 26 27 27 27 26 26 27

GFSWCAN_sfc_30mbdewp_027.txt.gz
Dewpoint
48 47 47 47 47 47 48 48 48 48 48 47 47 47 47 48 50 49 44 45 42 37 37 36 35 32 32 32 28 28 28 31 32 28 24 22 24 22 25 18 18 23 24 22 22 16 12 23 31 25 41 52 53 54
47 47 47 48 48 48 48 48 48 48 48 48 48 48 48 49 50 50 44 45 45 40 38 38 37 37 34 33 31 32 28 31 32 31 30 31 28 28 27 23 25 23 23 24 25 19 24 30 39 49 55 54 54 55
48 47 48 47 47 48 48 48 48 49 49 49 48 48 49 50 50 51 46 44 43 39 37 35 33 34 38 38 37 32 34 33 31 33 34 32 28 31 27 26 27 30 31 29 25 23 27 29 34 35 51 54 56 56
47 47 47 47 48 48 48 49 49 49 49 49 48 49 50 50 51 51 47 45 43 40 33 33 34 35 36 37 38 36 34 37 37 37 33 31 30 35 31 29 29 29 32 30 30 31 32 35 35 38 43 55 55 56
46 47 47 48 48 48 48 49 49 49 49 49 48 49 50 50 51 50 49 47 45 40 33 33 37 36 35 37 37 37 36 35 34 35 34 32 36 34 35 34 32 32 30 31 29 30 32 36 35 40 50 53 55 56
47 48 48 48 48 48 48 48 49 48 49 49 49 49 50 50 50 45 40 44 47 44 37 31 37 37 36 37 37 36 37 36 37 34 33 34 34 36 31 30 31 32 35 35 34 36 38 43 46 50 52 54 56 57
48 47 48 48 48 48 48 48 49 49 49 49 49 50 50 50 48 42 39 43 47 45 37 32 33 36 38 41 39 36 36 36 37 35 34 34 35 37 31 29 31 35 38 38 42 42 40 44 45 52 54 55 56 58
47 47 47 47 48 48 48 49 49 49 49 49 49 51 51 50 48 45 47 47 47 42 38 31 32 36 42 40 39 37 36 36 37 36 36 34 36 35 30 33 36 38 39 39 39 40 45 48 52 53 54 55 55 54
47 47 47 48 48 48 48 48 49 49 49 49 49 49 47 47 44 45 49 48 47 40 34 33 30 31 40 39 41 41 38 34 39 33 35 36 32 30 34 37 40 46 41 40 41 42 45 50 49 53 54 54 52 53
48 47 47 47 47 47 48 48 49 50 49 47 47 41 41 44 50 47 45 40 39 40 38 32 36 32 38 39 39 38 39 35 31 34 39 32 32 39 44 47 50 48 46 48 46 45 49 49 52 53 54 54 53 52
47 47 47 47 47 48 49 50 50 50 47 45 43 41 45 47 47 44 37 35 34 32 34 34 35 34 40 35 37 40 36 35 31 35 34 32 33 40 44 45 46 51 52 52 50 52 52 52 52 52 52 53 54 54
46 46 47 48 48 49 49 49 49 49 47 46 46 47 46 44 41 38 37 36 34 35 38 36 38 38 40 42 40 41 37 38 33 40 34 31 37 41 43 45 45 46 47 47 47 48 51 52 53 53 53 54 54 54
46 46 48 49 49 49 48 49 50 49 48 47 43 42 42 40 36 35 33 36 38 42 43 43 42 45 45 46 42 41 37 35 40 34 31 35 39 41 42 43 43 44 44 46 46 45 47 48 48 49 51 51 52 51
46 48 49 49 48 48 50 50 50 48 46 42 40 37 37 35 37 38 38 38 39 42 42 45 44 42 42 40 40 37 39 37 33 30 31 38 41 41 39 39 40 40 42 44 44 45 45 44 43 43 43 44 44 43
48 49 49 46 48 49 49 49 49 48 45 41 40 36 37 39 40 39 40 35 35 38 43 42 42 41 40 39 39 37 35 32 33 32 37 41 42 39 37 35 34 36 37 39 40 39 43 45 42 41 42 42 42 42
49 48 44 46 49 49 48 48 46 46 45 42 40 38 39 34 33 34 34 33 33 39 42 41 39 38 38 39 37 35 33 32 36 40 43 42 39 37 36 35 35 35 36 37 38 38 38 39 38 39 39 40 40 41
48 44 44 47 49 49 46 43 44 43 42 40 37 41 41 38 36 34 34 33 35 35 37 38 34 36 39 34 32 33 33 38 39 39 41 39 37 36 35 33 33 33 34 35 36 38 38 38 38 38 38 38 39 39
44 45 47 48 50 48 45 44 42 41 38 41 37 38 40 38 37 35 36 35 33 34 35 35 35 31 32 31 33 36 39 41 39 37 34 36 36 34 32 31 32 32 33 34 35 36 37 37 36 36 36 36 35 35
47 47 48 49 49 46 40 42 43 38 40 40 41 40 38 38 38 37 35 35 34 35 34 32 28 27 29 34 34 35 37 40 38 35 31 31 32 32 30 29 28 29 29 30 32 33 34 36 35 34 33 33 32 33
48 48 50 50 49 42 39 41 44 39 37 38 43 39 39 37 38 35 35 34 32 29 26 26 26 30 32 32 35 36 35 37 38 30 28 29 29 29 30 28 26 25 23 24 24 27 32 33 33 31 30 30 29 29
47 49 50 50 48 45 42 41 42 42 41 40 43 42 41 41 38 35 34 37 30 33 29 35 30 30 34 34 33 33 31 32 31 29 29 26 27 26 24 24 23 21 20 20 20 22 26 31 32 29 28 27 26 25
48 49 50 50 45 44 45 46 44 45 44 44 44 43 39 38 38 39 40 34 37 39 41 37 36 31 30 32 32 32 33 31 30 26 25 25 24 24 23 22 21 19 20 22 24 25 29 32 29 26 25 24 23 23
49 49 48 47 43 40 43 48 44 45 39 41 42 39 40 41 41 40 37 39 40 42 41 38 36 33 31 31 32 31 31 30 26 25 25 24 24 24 23 22 21 20 20 23 27 29 29 27 25 24 24 23 22 21
48 47 44 42 42 38 44 42 45 44 43 40 40 38 41 43 41 38 35 36 38 40 37 36 32 27 27 30 25 25 25 25 23 24 24 23 22 23 24 23 22 21 22 23 24 24 24 23 22 21 20 20 20 19
41 42 41 36 41 40 38 39 39 40 39 40 40 39 41 42 36 35 33 34 39 38 38 34 29 27 23 23 23 23 25 22 20 21 22 23 22 21 21 21 22 23 23 20 20 21 22 22 21 20 20 20 20 19
35 42 38 38 39 37 38 35 37 39 38 39 40 42 41 37 28 26 32 36 38 37 38 35 32 26 24 23 21 21 21 22 22 20 22 22 22 21 20 19 18 19 24 24 22 21 21 21 21 21 21 21 20 19
34 36 43 47 45 44 40 40 40 36 35 36 39 38 34 26 24 28 35 38 37 40 39 30 30 26 23 21 21 22 21 21 23 22 23 23 23 23 22 21 21 22 25 24 23 22 20 20 20 19 19 20 20 20
39 42 37 42 44 44 41 37 34 29 31 38 38 33 28 26 22 30 34 40 39 38 27 27 27 24 21 22 22 21 20 20 20 20 20 22 23 23 24 23 23 25 24 24 23 22 22 21 20 19 20 20 21 24
41 43 42 39 42 43 43 37 30 32 35 38 34 28 31 36 37 35 39 39 32 27 25 25 25 24 24 23 22 21 20 20 20 19 18 18 20 20 22 23 24 24 23 21 24 25 24 21 21 21 22 23 25 27
44 43 40 40 39 36 37 40 36 36 38 39 37 38 39 40 41 42 38 30 27 26 25 24 24 23 23 22 22 21 21 20 20 20 19 19 20 21 22 23 23 23 23 22 21 22 23 23 24 23 24 24 25 27
45 45 42 41 40 42 43 43 44 43 42 40 40 38 40 41 43 43 41 37 28 26 24 23 24 24 23 23 23 22 21 21 22 22 22 21 21 22 23 23 23 24 24 23 23 23 23 23 24 24 25 25 26 26
44 43 41 38 39 43 43 40 39 40 42 40 40 42 42 42 41 45 37 27 25 25 25 24 23 23 24 24 25 25 23 22 22 22 24 22 23 23 23 23 23 24 24 24 24 24 25 25 25 25 25 25 25 26
39 39 41 40 41 40 41 41 40 40 40 39 39 40 41 39 40 44 37 29 26 25 25 25 25 25 27 25 26 26 25 25 24 22 22 23 24 24 25 23 23 25 25 25 25 25 25 26 25 25 25 25 25 26

GFSWCAN_sfc_30mbdewp_030.txt.gz
Dewpoint
48 48 48 48 48 48 48 48 48 49 49 48 48 48 49 49 50 50 46 48 42 37 36 35 33 33 32 32 29 27 27 27 26 27 19 16 14 13 13 11 10 16 15 13 13 11 9 14 17 19 35 43 44 46
47 47 47 47 48 48 48 48 49 49 49 49 48 49 49 50 51 51 46 47 47 41 38 38 39 37 36 35 33 35 29 29 30 29 29 29 26 26 23 17 18 15 15 14 14 12 17 21 17 25 34 35 38 46
47 47 47 47 48 48 48 48 49 49 49 48 48 49 49 50 50 51 47 45 44 40 38 38 34 34 35 36 36 33 33 32 29 29 32 31 28 22 21 18 19 20 22 22 20 19 22 25 27 29 29 31 36 38
47 47 48 48 48 48 48 49 49 49 49 48 48 49 50 50 50 51 48 45 44 40 34 33 34 33 36 35 35 36 34 34 33 37 36 33 30 28 29 25 24 24 25 26 27 28 25 22 22 24 30 30 30 33
47 48 48 48 48 48 48 48 49 49 48 48 49 50 50 50 51 51 50 47 46 40 35 35 38 36 34 35 35 36 36 34 34 35 34 31 34 32 30 29 28 28 27 26 24 26 28 28 29 29 27 34 34 40
48 48 48 48 48 48 48 48 48 48 48 49 50 50 50 50 50 47 40 46 48 46 38 33 34 35 36 37 37 37 36 36 38 35 33 35 36 35 31 30 29 29 30 31 31 31 31 32 35 36 40 41 41 44
47 47 48 48 48 48 48 48 48 48 49 50 50 50 51 50 49 43 41 45 47 45 38 33 32 35 38 39 40 38 39 38 38 34 32 33 35 36 31 29 32 35 38 38 37 36 36 37 36 40 40 44 46 50
47 48 48 48 47 48 48 47 48 49 49 50 50 51 50 49 48 46 49 47 47 42 39 33 33 35 42 40 39 42 37 37 36 33 34 32 34 33 29 32 35 37 37 38 39 40 38 38 41 43 45 47 51 55
47 48 47 47 47 48 47 49 49 50 50 50 50 50 47 47 45 47 49 47 47 41 34 33 31 31 41 39 42 40 38 32 38 32 32 33 32 30 33 39 44 44 45 39 39 39 40 40 40 43 49 50 53 56
48 47 47 47 47 47 48 49 50 50 50 49 48 43 43 45 50 47 45 41 41 41 38 32 36 32 38 39 39 39 39 34 31 35 40 32 32 38 40 44 46 46 44 42 40 41 41 41 43 47 47 53 55 56
47 47 47 47 48 49 50 50 50 50 47 46 43 42 46 49 47 44 38 36 36 35 36 36 36 35 41 36 37 41 36 36 34 36 35 33 33 38 41 43 45 46 47 48 49 47 48 47 51 52 52 56 55 56
47 47 47 48 49 50 50 50 50 49 47 46 46 47 46 45 43 40 38 39 38 38 42 38 42 40 41 43 40 42 40 39 33 39 32 30 35 40 41 42 44 46 47 46 47 47 47 47 48 49 49 50 52 52
47 47 48 49 49 49 50 50 50 49 48 47 46 42 40 40 36 34 32 35 37 41 42 43 44 45 45 46 43 40 35 36 39 35 31 33 38 39 40 42 43 44 47 47 46 46 46 46 46 47 48 49 49 50
48 48 49 49 48 50 50 50 49 49 47 44 39 37 37 36 37 38 38 38 39 39 38 43 42 43 42 40 40 37 39 36 33 31 32 35 37 37 39 39 41 42 43 44 45 45 45 45 45 46 47 47 47 48
49 49 49 48 49 50 49 49 49 48 41 39 40 36 36 37 36 34 35 35 36 37 40 39 39 35 37 39 39 38 34 33 34 33 37 38 38 37 36 37 37 38 39 39 39 41 42 43 43 44 45 46 45 45
49 49 46 47 49 49 48 48 44 42 42 37 36 35 35 32 31 31 32 32 35 37 41 38 37 36 33 36 35 32 33 30 35 37 36 35 38 37 36 36 36 37 38 38 39 38 39 40 41 41 42 41 41 41
48 45 46 49 49 49 48 43 41 39 37 36 34 34 34 33 32 31 30 31 34 34 34 34 33 34 32 30 33 35 33 36 39 36 34 37 37 36 35 36 36 36 37 36 37 38 36 36 37 38 39 39 39 38
46 47 48 49 50 49 45 42 38 36 34 36 35 34 32 31 30 30 30 30 33 33 32 30 29 27 27 26 30 33 36 39 39 34 33 35 36 37 36 34 33 32 32 34 36 35 36 34 33 33 35 35 34 34
48 49 49 49 50 47 40 41 40 35 34 36 38 37 35 32 30 30 31 30 29 29 29 27 27 25 24 25 27 30 32 33 36 32 31 33 34 35 33 30 28 28 27 27 26 30 33 35 33 32 32 31 30 30
49 48 49 50 49 42 40 42 44 36 35 37 39 38 37 35 30 30 30 28 27 27 26 25 25 26 25 26 26 27 29 31 31 31 29 29 29 28 29 27 25 24 21 21 21 24 27 30 31 30 29 29 28 28
48 49 50 51 49 45 42 41 41 40 38 37 42 42 38 37 33 31 30 30 28 27 27 29 28 27 33 33 30 28 28 29 26 27 26 26 27 26 25 24 23 21 20 20 21 23 27 28 28 28 27 27 26 25
49 50 51 50 45 45 45 46 44 44 42 40 40 41 36 34 33 30 33 31 31 32 32 30 29 28 26 30 31 32 32 29 27 24 23 23 23 23 23 22 20 19 19 22 24 26 26 27 26 26 26 25 24 22
50 50 49 47 44 43 45 48 45 44 40 39 40 37 37 38 38 37 29 32 33 33 33 32 33 33 31 30 31 28 28 25 22 22 22 22 23 24 22 21 20 19 19 21 23 24 24 24 23 22 22 21 20 19
49 49 46 43 42 41 46 43 45 44 43 40 38 36 38 39 40 32 26 28 31 34 33 36 32 27 26 31 22 23 24 22 21 20 22 20 20 20 22 21 20 20 20 20 20 20 20 20 20 19 20 20 19 19
42 41 42 37 42 40 37 37 38 36 37 39 38 36 39 42 33 28 24 25 27 28 31 33 29 26 23 21 21 22 25 22 21 21 21 20 20 19 19 19 19 21 21 20 19 20 20 20 21 21 21 20 19 19
35 42 39 38 39 36 35 29 30 32 34 35 37 40 40 35 25 22 22 26 28 28 30 29 27 25 23 23 21 20 22 22 22 19 20 20 20 19 19 18 18 19 21 21 21 20 20 20 20 20 19 20 19 19
35 37 43 46 44 43 39 36 36 30 31 30 32 35 31 23 19 22 28 31 30 31 35 29 27 26 24 22 23 23 22 22 22 21 22 21 21 21 20 19 19 21 23 22 21 21 20 20 19 19 19 19 20 21
40 43 37 42 43 41 39 37 30 26 25 31 33 30 26 24 25 27 29 32 34 37 32 27 26 25 24 23 22 22 22 21 21 21 20 20 21 21 22 21 22 23 22 22 21 21 21 20 20 20 20 20 21 23
43 42 41 40 40 40 40 37 32 29 29 31 31 30 29 31 33 31 37 36 35 33 29 26 25 25 24 24 23 22 22 20 20 20 20 19 19 20 21 21 21 21 21 21 22 21 22 20 21 21 22 23 24 26
41 42 40 39 38 35 36 37 36 35 34 34 36 35 34 36 38 43 39 37 35 33 32 26 25 24 24 23 22 22 22 21 20 20 20 20 20 21 22 22 22 22 22 21 20 22 22 23 23 24 24 24 24 25
44 43 42 39 36 38 42 43 43 41 40 37 37 36 36 41 44 43 42 42 39 34 28 25 25 25 24 23 22 20 19 21 22 23 22 22 22 23 23 23 23 23 23 23 23 22 23 23 23 24 25 24 25 24
43 42 40 37 34 42 43 40 39 39 40 40 39 40 41 41 41 45 39 33 33 30 26 26 26 25 24 23 22 22 23 22 22 23 24 23 23 24 24 23 22 23 24 24 24 24 24 24 25 25 25 25 25 25
37 37 39 37 37 39 39 40 40 40 39 38 39 40 40 39 40 42 34 30 28 27 27 26 26 26 27 25 25 24 24 24 25 22 21 22 23 24 24 23 23 23 24 24 25 25 26 26 26 26 25 25 25 26

GFSWCAN_sfc_30mbdewp_033.txt.gz
Dewpoint
48 48 47 47 47 48 48 49 49 49 49 49 48 49 49 49 50 50 48 49 43 38 38 38 37 37 34 32 31 29 26 24 21 25 22 21 13 13 9 10 12 18 13 13 16 16 17 21 20 25 34 41 42 45
47 47 47 47 48 48 49 49 49 49 49 48 49 49 50 50 50 51 47 49 48 42 39 40 39 39 37 36 34 36 28 28 28 30 30 27 22 19 20 16 12 11 15 15 14 14 21 22 23 23 25 32 34 35
47 47 48 48 48 48 48 49 49 48 48 48 49 50 50 50 51 51 49 47 45 40 39 39 36 38 38 37 36 35 33 31 29 28 29 31 29 23 19 16 17 19 20 14 17 19 20 21 21 22 24 28 31 31
48 48 48 48 48 48 48 48 48 49 49 49 49 49 50 51 51 51 46 47 44 40 35 35 35 34 34 36 35 35 35 35 35 33 35 32 28 27 27 24 24 26 25 22 20 20 22 24 25 24 25 27 27 28
48 48 48 48 48 48 49 49 49 49 49 49 49 50 51 51 51 51 50 47 47 42 37 37 39 36 36 35 36 37 36 38 38 36 34 32 34 33 30 28 26 25 24 24 24 26 25 27 28 29 28 26 27 29
48 48 48 48 49 49 49 49 49 49 49 50 50 50 50 50 50 49 43 47 48 47 39 35 35 38 40 40 40 41 41 41 39 35 34 36 36 35 31 30 29 31 35 35 33 31 30 30 32 32 31 30 31 34
47 48 48 48 49 49 48 48 48 49 50 50 50 51 50 49 48 43 42 44 47 47 39 34 36 40 41 43 43 42 42 40 38 33 31 33 34 36 31 29 32 34 37 38 38 37 37 36 33 33 34 33 35 35
48 48 48 48 47 48 48 48 49 49 50 51 51 50 49 47 47 48 47 47 47 42 40 33 35 39 43 39 39 41 37 37 35 33 33 32 34 33 29 34 36 40 43 43 39 38 37 38 39 39 37 38 37 38
48 47 48 47 48 48 48 49 50 50 51 50 51 49 48 46 45 47 48 47 47 42 35 34 32 33 40 40 42 40 38 32 38 32 32 32 32 31 33 39 42 45 45 40 42 39 38 38 38 39 38 40 43 43
48 47 48 48 48 48 49 50 51 50 49 49 49 46 45 46 49 47 46 42 41 41 39 34 37 35 39 40 39 40 40 37 33 38 39 35 32 39 42 43 45 46 47 41 39 39 39 39 39 38 40 42 43 47
48 48 48 48 48 49 50 51 50 50 48 48 44 43 47 49 47 46 42 39 40 39 42 40 38 38 42 38 39 42 39 38 35 31 31 34 33 38 42 43 45 47 47 47 47 47 43 44 44 43 45 49 52 52
49 49 49 49 49 50 50 51 50 50 47 47 46 47 47 45 42 39 39 41 40 40 43 43 44 43 44 44 41 43 38 34 30 31 33 31 37 40 41 42 44 47 47 47 48 47 48 49 49 49 49 50 50 51
49 49 49 50 50 49 50 51 50 48 48 48 45 41 39 39 37 36 34 37 38 39 40 39 42 43 46 47 43 37 32 32 32 35 32 36 37 38 39 40 41 42 44 47 47 48 48 47 48 48 48 48 48 49
49 49 50 49 49 50 50 50 49 49 48 38 37 36 36 35 34 38 37 34 35 36 36 40 38 39 38 39 37 35 36 34 32 32 33 37 38 38 38 38 38 38 38 40 42 46 46 46 47 47 47 48 48 47
49 49 49 49 49 50 50 49 50 50 38 37 36 35 33 31 31 33 32 32 34 36 36 38 35 32 33 35 35 35 33 33 35 33 34 35 38 38 39 36 38 37 37 37 37 39 42 45 44 43 45 45 44 44
49 49 49 48 49 49 49 48 47 40 37 34 32 30 29 27 25 26 27 28 32 33 37 36 34 33 29 30 32 34 33 30 34 39 35 35 39 38 38 36 36 36 37 36 37 37 36 38 39 41 40 39 38 39
49 46 48 49 49 49 46 43 39 37 36 33 30 29 27 26 26 27 28 28 32 32 31 32 30 31 30 28 32 34 36 37 40 39 33 37 39 39 37 34 33 32 32 31 34 36 35 35 35 35 37 37 36 36
47 47 49 49 50 50 43 40 37 35 34 33 32 32 30 28 27 27 27 29 29 31 30 29 28 26 26 26 28 28 29 31 40 36 33 37 38 36 33 32 30 29 27 28 27 31 34 32 31 31 32 31 31 31
49 49 49 49 50 49 39 39 39 34 34 34 34 34 33 29 29 29 28 27 29 29 28 26 25 23 24 25 24 25 26 26 28 33 32 33 33 33 32 29 26 25 24 24 24 24 28 30 29 29 29 30 29 29
49 49 49 50 50 44 39 40 42 35 33 34 36 37 35 33 30 30 29 28 27 26 25 24 24 24 25 26 25 24 26 25 25 25 26 26 27 27 26 25 23 21 20 21 23 25 26 26 26 27 27 27 26 25
49 49 49 52 48 44 40 39 38 37 36 34 36 38 35 32 28 28 30 29 28 26 25 26 25 27 32 31 29 28 27 28 27 24 23 20 22 23 23 22 20 19 20 22 24 25 25 25 25 25 25 24 23 22
49 49 51 49 44 44 43 43 40 41 38 36 35 34 32 31 30 28 32 29 29 28 28 28 28 26 25 30 30 31 30 29 26 23 23 22 22 22 22 21 20 19 20 21 23 24 24 23 22 23 22 21 21 20
50 51 49 46 43 43 42 45 40 39 36 34 34 32 32 33 34 35 27 28 30 31 31 31 33 34 32 29 30 28 28 25 21 21 22 21 20 22 22 21 20 20 19 20 21 21 21 20 20 20 20 20 20 19
49 49 45 40 40 39 42 39 38 37 38 34 32 32 32 33 35 30 24 25 28 31 31 34 31 27 27 32 24 22 25 22 20 20 21 20 18 19 20 20 19 20 20 20 20 20 20 20 20 20 21 20 20 19
46 40 43 35 40 36 32 30 31 31 31 32 32 31 32 36 30 25 24 24 26 27 29 30 27 25 24 23 20 20 26 21 20 20 21 19 19 18 19 19 19 21 21 20 19 20 20 19 20 20 20 20 19 20
36 38 38 32 33 33 30 29 27 27 28 30 31 33 35 32 27 23 23 25 27 28 29 28 27 26 25 24 22 21 20 21 21 19 20 20 19 19 19 19 18 19 21 21 20 19 20 20 19 19 19 20 20 20
34 33 36 40 38 38 35 32 32 30 27 27 28 30 30 28 24 26 29 32 31 32 34 32 29 29 28 26 26 23 22 22 23 22 22 22 21 21 20 20 20 21 21 21 21 21 20 20 19 19 19 20 21 22
37 37 35 36 37 36 34 34 31 28 27 27 30 29 31 27 28 31 31 34 35 36 35 32 30 29 28 27 25 22 20 20 22 22 21 20 21 21 22 21 22 20 21 22 20 19 22 21 21 21 21 22 24 26
39 37 34 34 35 35 35 34 32 33 30 26 27 27 29 32 35 34 35 36 36 36 34 32 29 28 27 26 25 22 21 19 18 20 20 19 19 20 21 22 21 21 21 21 21 20 20 19 22 23 23 24 25 26
37 36 33 34 33 32 36 37 31 31 32 32 33 32 33 35 38 40 39 37 37 37 37 35 31 28 26 25 22 21 21 21 20 20 19 19 19 21 22 22 22 22 22 22 22 23 22 22 24 25 25 24 24 23
34 34 35 33 33 31 33 32 33 36 38 35 33 34 32 38 42 44 42 42 41 39 34 31 28 27 25 22 21 19 15 20 23 24 23 22 22 23 24 24 23 23 24 24 24 23 23 23 24 24 24 25 25 25
36 34 33 30 30 34 34 33 30 31 31 33 32 35 37 39 41 44 39 36 34 32 28 28 27 26 25 22 20 21 21 22 22 23 24 23 23 24 23 24 23 23 24 25 25 25 25 24 24 25 24 24 25 24
33 30 31 31 30 31 33 32 32 34 33 32 34 38 35 37 38 40 35 33 31 29 28 26 26 27 27 24 24 23 24 26 23 23 24 24 24 24 23 23 23 23 23 24 25 25 27 27 26 26 25 25 25 25

GFSWCAN_sfc_30mbdewp_036.txt.gz
Dewpoint
49 48 48 48 48 48 49 49 49 49 49 48 49 49 50 50 50 50 48 50 43 38 38 39 38 38 39 36 34 32 28 34 29 28 26 32 26 27 19 15 18 15 16 18 19 20 22 29 27 32 40 40 38 39
48 48 48 48 48 49 49 49 49 49 49 49 49 49 50 50 51 51 47 50 48 41 39 41 42 43 42 39 38 38 32 30 30 33 32 28 25 22 20 16 17 16 21 19 18 19 27 26 25 25 26 28 34 34
48 48 48 48 48 48 49 49 49 49 49 49 49 50 50 50 51 51 49 48 47 41 40 40 38 40 40 40 38 38 33 32 30 32 28 28 28 25 23 21 23 22 27 24 19 20 22 23 24 24 25 26 28 30
48 48 48 48 48 48 49 49 50 49 49 49 49 50 51 51 51 51 48 48 45 41 36 36 40 41 41 39 40 38 37 34 34 36 35 33 29 29 27 26 24 24 25 24 24 26 27 25 24 25 26 27 27 27
48 48 48 48 48 49 49 49 49 49 49 50 50 50 51 51 51 50 50 48 46 43 37 37 41 44 44 41 40 41 38 40 39 36 35 33 35 34 31 28 26 27 27 27 27 29 32 33 30 29 28 28 30 30
48 48 48 48 49 49 49 48 48 49 49 50 51 51 51 50 50 50 45 46 47 47 40 36 38 43 43 44 43 42 42 40 40 36 33 36 38 35 31 29 29 32 33 34 33 35 35 36 37 35 34 33 33 33
47 48 48 49 49 48 48 49 48 49 50 51 51 51 49 49 47 43 42 45 47 46 40 36 37 42 44 44 43 43 43 40 38 34 31 32 33 36 31 29 33 36 37 38 38 38 37 37 36 36 36 34 34 33
48 48 49 49 48 49 49 49 49 51 51 51 51 49 48 47 48 47 44 46 46 42 40 36 36 40 44 41 41 41 38 38 36 35 34 32 33 33 29 35 41 45 46 44 43 42 39 40 38 37 37 36 37 33
48 49 49 48 49 49 49 49 51 51 51 50 50 49 49 48 45 45 47 47 45 42 38 38 35 37 42 42 43 41 39 35 38 33 33 33 32 31 37 40 41 43 45 46 40 42 43 41 40 37 37 37 38 36
48 49 49 49 49 50 50 50 51 50 49 49 49 48 45 46 48 48 46 44 44 42 41 40 40 38 40 41 40 40 40 38 37 38 38 36 35 40 42 43 42 44 46 46 43 39 39 39 38 37 37 37 37 37
49 49 50 50 50 50 50 51 50 49 48 48 48 43 48 49 47 46 44 42 42 43 43 43 42 42 43 40 40 42 40 40 34 32 33 34 34 39 41 43 44 43 45 44 47 47 44 43 40 39 38 39 39 43
49 49 50 50 50 50 51 51 51 49 46 46 46 47 48 47 43 39 38 41 42 40 40 40 44 45 44 44 43 43 38 32 26 35 35 32 38 40 40 40 43 44 44 45 45 45 46 47 47 48 49 48 49 48
49 49 50 50 50 50 50 51 50 50 48 49 46 44 39 38 35 37 37 37 38 38 38 37 42 47 46 45 44 38 29 33 30 34 33 36 40 41 40 38 39 41 44 44 46 45 45 46 46 46 47 48 48 48
49 50 50 50 50 50 50 51 49 49 48 38 36 35 34 32 29 30 31 33 33 33 37 38 40 41 37 35 34 34 35 31 29 32 32 35 40 41 40 37 36 36 39 40 44 46 45 44 44 44 45 46 46 46
49 50 50 50 49 49 50 50 50 50 43 36 34 32 29 26 25 25 26 27 28 32 36 40 40 34 31 32 31 33 32 32 34 33 36 34 40 41 39 36 35 34 33 37 38 39 44 44 44 43 44 44 43 45
50 49 50 49 49 48 48 50 51 45 37 32 29 27 26 25 25 25 26 26 28 30 33 34 31 32 30 30 30 32 32 32 35 38 40 35 40 40 37 37 32 32 33 31 37 36 38 40 40 40 41 41 41 41
49 49 49 48 49 49 46 46 39 36 34 32 30 30 28 27 27 27 26 26 29 29 27 27 26 28 30 29 31 32 30 33 38 37 38 38 38 37 38 35 30 28 29 30 30 35 35 36 39 37 35 33 34 36
49 47 49 49 49 51 43 39 37 35 33 32 31 31 31 29 29 28 27 28 28 28 28 27 25 23 24 24 23 24 25 26 34 35 33 36 37 35 35 29 28 27 26 27 29 31 31 30 31 34 34 34 34 34
49 50 50 49 50 49 40 38 40 33 32 32 32 34 32 31 30 31 29 29 28 27 26 25 23 22 23 25 24 23 25 26 24 26 29 33 35 31 32 26 24 23 23 26 27 26 27 29 27 26 26 27 27 25
50 49 49 50 51 49 38 39 42 35 31 32 35 35 34 34 29 29 30 29 28 26 25 24 24 26 26 27 27 25 27 28 26 25 24 23 22 24 26 24 22 22 21 24 25 25 25 25 25 25 24 23 22 21
50 51 47 52 52 46 38 35 39 36 35 34 34 36 35 34 29 27 29 29 28 26 26 27 25 26 33 32 30 31 29 29 29 26 23 22 22 23 23 23 22 20 21 21 23 23 22 22 22 22 21 21 21 19
50 48 50 49 45 42 41 37 37 39 37 35 32 32 32 31 31 30 32 28 29 30 30 30 31 31 28 32 32 33 32 30 28 24 23 22 20 20 22 21 21 20 20 21 21 21 21 20 20 21 21 20 20 19
51 52 50 45 42 42 38 41 38 36 33 33 33 31 30 30 33 35 30 27 29 32 33 34 35 37 37 33 30 32 31 27 22 21 21 22 19 20 20 20 20 20 20 20 20 20 20 21 21 21 21 21 20 20
51 50 45 41 38 37 38 38 35 34 33 35 31 31 32 33 33 33 26 25 28 30 35 35 32 28 32 37 27 23 26 23 20 20 22 21 18 19 20 20 19 21 21 20 20 20 20 20 21 20 21 20 20 20
47 39 43 36 38 34 32 28 28 28 27 29 30 31 32 32 31 28 26 25 27 29 31 31 30 29 27 25 24 22 24 21 20 20 21 20 19 19 19 19 20 22 21 20 19 19 21 21 20 19 20 20 20 20
40 37 37 32 31 32 30 28 27 26 26 25 27 32 34 33 30 27 26 29 30 31 32 34 31 29 29 28 26 25 22 22 22 20 21 21 20 20 20 19 19 21 22 21 22 21 21 20 20 19 20 22 21 23
35 33 35 35 32 33 35 34 32 30 26 27 26 27 36 37 31 31 34 34 33 35 36 37 38 35 32 29 29 24 22 22 24 23 22 22 21 21 21 20 21 20 19 21 20 20 21 22 21 21 21 24 26 24
37 35 31 35 37 33 36 42 41 40 39 39 28 31 35 35 33 38 34 35 35 37 37 39 40 36 30 29 26 24 21 19 21 22 21 22 22 22 22 21 22 21 22 22 21 21 21 20 20 20 22 25 26 25
37 42 41 32 36 37 42 42 41 41 39 34 29 28 27 42 45 45 37 36 37 38 38 39 35 32 30 27 28 26 22 20 19 18 19 19 20 20 22 22 22 23 22 23 22 22 23 22 23 24 25 25 26 25
38 42 39 31 30 33 39 39 37 31 31 30 30 32 39 43 42 39 37 38 38 36 37 36 32 29 27 25 21 21 17 19 20 21 20 19 20 22 23 23 23 23 24 24 25 25 23 23 25 26 25 25 24 24
37 36 33 33 34 33 37 38 33 28 32 33 40 40 43 47 50 43 40 38 34 35 34 29 30 30 26 22 20 19 17 20 25 25 23 22 22 23 24 24 24 24 25 25 26 26 25 25 25 25 25 25 25 25
35 34 32 26 27 28 33 36 35 28 30 30 32 36 38 44 43 41 38 35 29 28 29 27 25 26 26 23 21 21 22 25 24 24 24 23 23 24 23 23 23 23 24 24 25 26 27 26 26 25 25 24 25 25
33 34 31 31 31 28 31 31 29 30 33 34 42 43 36 38 37 37 35 32 30 27 25 25 25 24 24 23 23 22 26 25 25 25 25 24 24 24 23 23 23 22 21 26 29 28 28 28 28 28 27 27 26 26

GFSWCAN_sfc_30mbdewp_042.txt.gz
Dewpoint
49 50 50 49 49 49 49 49 49 49 49 49 49 50 50 51 51 50 48 49 44 39 39 39 40 40 39 38 33 37 34 32 33 29 29 30 29 32 31 34 33 31 31 30 30 31 30 36 37 33 35 34 34 31
49 50 49 49 49 49 49 49 49 49 49 49 49 50 51 51 51 51 47 51 49 43 41 43 43 44 44 43 40 40 37 36 35 31 29 30 31 32 30 28 30 29 32 31 32 32 34 35 41 40 38 36 38 37
49 49 49 49 49 49 48 49 49 49 49 50 50 51 51 52 52 51 49 48 46 42 40 40 42 45 46 45 45 39 38 41 38 38 34 33 30 31 28 28 27 29 32 31 30 29 32 35 40 38 38 37 37 38
48 48 48 48 48 48 49 49 49 49 50 50 51 51 51 51 51 51 48 48 45 41 36 37 43 43 45 45 44 44 43 42 41 38 35 34 32 35 30 30 29 34 34 34 32 32 33 34 36 36 36 38 38 37
48 48 48 49 49 49 48 48 49 50 51 51 50 51 51 51 51 51 49 48 46 42 36 37 40 44 44 43 43 43 41 40 39 36 34 32 35 34 33 31 33 36 35 32 31 36 36 37 38 38 37 38 38 38
47 48 48 49 49 49 49 49 49 50 51 51 51 52 51 50 50 51 44 47 47 46 38 36 39 43 44 44 42 42 42 40 38 35 33 35 37 35 30 30 37 40 41 41 40 43 43 40 40 40 39 39 40 39
47 48 49 50 49 49 49 50 50 51 51 51 50 49 49 49 48 45 42 47 48 46 39 37 39 43 45 44 42 41 40 38 37 34 33 33 34 35 31 29 35 40 40 41 41 45 42 42 40 41 41 41 41 41
47 48 49 50 50 49 49 50 50 51 51 50 50 48 48 47 46 45 45 47 47 42 40 39 39 39 43 42 41 42 38 39 37 35 35 33 34 32 30 37 40 40 40 40 40 42 44 44 42 41 42 42 42 41
48 49 49 50 50 50 50 50 51 51 50 49 49 49 49 47 46 45 47 46 47 44 41 41 39 38 43 42 42 41 40 37 38 36 35 35 33 34 37 40 40 42 39 39 39 41 42 42 44 44 44 43 42 42
48 49 49 50 50 50 51 51 51 49 49 49 48 48 46 46 48 48 46 44 43 43 42 41 43 40 41 41 41 40 40 37 35 37 38 34 36 39 40 41 43 43 42 41 39 39 40 41 43 46 44 43 43 41
49 49 49 50 50 51 51 51 50 49 48 46 48 47 47 49 47 46 44 42 43 41 42 42 44 42 44 40 40 41 39 38 34 36 35 34 34 36 39 40 42 44 43 42 41 42 42 42 42 44 45 47 47 48
48 49 50 50 50 51 51 51 50 48 50 47 47 49 48 47 45 43 38 40 41 36 43 43 43 46 45 44 41 42 40 38 33 37 34 32 35 37 38 39 37 44 43 42 42 42 42 42 42 43 43 43 44 46
48 49 50 50 50 50 51 51 51 50 50 50 48 47 47 42 35 33 30 29 31 36 38 38 39 45 47 45 43 41 33 32 36 32 32 35 38 37 38 39 36 37 43 42 42 41 42 42 41 42 42 43 42 42
48 49 50 50 50 50 50 51 51 51 48 46 47 33 35 28 28 28 28 28 31 32 31 35 41 40 43 42 34 33 35 33 29 28 31 37 38 36 38 38 38 32 36 42 41 41 40 40 40 41 41 42 42 41
49 50 50 51 50 49 50 50 51 50 49 47 38 29 27 31 31 30 31 30 31 32 33 37 41 38 33 31 33 32 30 28 31 32 36 38 38 38 35 35 37 34 32 40 41 41 40 40 41 40 40 40 40 40
49 49 51 50 50 49 50 51 50 50 51 44 35 30 31 29 30 30 30 29 32 32 34 34 31 31 31 31 29 31 29 29 31 34 37 38 38 37 34 33 36 34 33 33 41 40 40 41 39 41 42 41 40 40
49 48 51 50 49 49 51 47 53 50 39 36 34 33 32 31 31 33 31 29 35 29 28 28 28 28 27 26 28 28 28 28 31 31 36 39 37 36 35 34 35 31 32 32 35 39 38 40 41 40 38 40 40 41
48 50 48 50 50 51 54 49 46 37 36 34 34 35 36 33 31 33 32 34 30 29 28 29 28 26 26 25 26 29 31 30 29 29 34 35 37 38 38 37 26 31 28 32 34 33 33 35 36 31 28 27 32 37
47 48 49 50 49 48 49 47 42 40 37 35 38 36 35 37 35 36 33 34 33 31 30 28 27 26 28 30 29 31 31 29 30 31 33 30 26 27 33 30 25 32 27 26 26 24 24 24 29 25 24 24 25 26
49 50 50 50 50 50 51 45 46 42 38 36 39 38 36 35 37 35 33 31 31 30 27 26 28 31 31 32 33 32 31 32 31 28 27 28 27 24 28 31 27 28 29 24 22 22 21 23 26 23 23 24 24 23
51 53 51 50 51 49 50 43 41 43 39 37 40 39 37 38 38 31 33 35 31 29 29 31 31 33 35 35 35 35 34 33 30 31 30 30 26 24 26 27 26 25 25 24 23 22 22 23 25 25 23 24 24 24
51 53 51 52 50 52 49 46 39 39 41 40 40 40 37 35 38 35 37 35 32 32 34 34 34 35 36 36 35 35 35 34 33 34 30 26 22 23 23 26 25 24 24 25 24 22 23 23 23 23 23 25 25 26
52 53 52 52 48 42 38 45 40 42 39 36 40 36 37 40 44 46 35 37 37 38 37 36 36 36 35 38 40 37 35 35 30 26 24 23 23 25 25 24 24 24 23 24 27 23 24 24 22 22 27 28 27 27
54 52 50 48 43 38 41 42 44 43 40 39 37 37 39 43 45 42 40 40 42 41 38 39 39 39 41 42 39 36 31 26 25 23 24 22 22 25 25 24 22 22 24 25 26 25 25 24 23 25 27 28 29 29
48 44 43 39 42 38 36 37 39 38 36 37 35 36 42 43 39 38 40 41 41 41 40 38 37 36 34 34 29 26 25 24 24 23 24 24 22 23 23 22 21 21 23 23 24 25 26 26 26 26 27 27 27 28
47 43 36 38 39 39 39 37 40 41 42 39 38 43 44 41 39 38 39 43 43 41 43 39 36 36 36 36 29 26 25 25 24 23 23 24 22 21 24 21 20 21 25 24 24 23 24 27 27 28 27 27 27 26
43 37 40 43 43 44 43 46 46 43 41 39 39 40 40 37 35 39 42 44 45 45 44 41 39 38 36 29 26 27 27 26 25 24 24 25 24 25 23 22 22 24 25 25 24 24 23 26 28 27 26 26 26 28
47 44 40 42 43 45 42 43 41 40 40 44 44 39 37 37 36 42 43 47 45 45 42 41 39 38 35 31 30 29 27 28 27 29 28 26 26 26 25 25 25 25 25 26 25 25 26 27 28 29 28 28 27 28
44 42 41 39 43 44 44 42 43 43 45 43 43 42 42 45 46 46 46 48 47 42 42 41 39 37 33 27 25 25 25 25 24 23 25 24 23 25 26 26 26 27 25 25 26 26 24 24 25 27 29 30 30 30
40 42 40 40 39 39 42 46 46 47 47 48 47 48 46 48 50 50 46 38 38 34 28 26 23 23 24 26 26 26 27 26 26 25 24 24 25 26 27 27 27 29 30 29 29 27 27 28 28 27 26 26 26 28
41 41 39 38 37 37 44 45 44 43 44 47 48 45 46 43 43 45 36 33 31 28 25 23 23 23 23 26 26 26 25 25 24 24 25 25 26 26 25 25 27 29 30 30 30 28 27 27 27 26 26 26 25 26
42 40 38 35 35 38 40 40 41 42 44 45 46 49 46 44 43 36 34 30 28 27 25 24 23 25 27 27 26 25 23 22 23 25 26 26 26 26 25 26 30 31 32 33 34 33 30 29 28 28 28 27 27 28
39 39 39 38 36 32 35 34 37 42 43 44 44 46 47 41 34 37 37 34 29 27 26 28 29 28 27 26 25 24 24 25 27 27 27 27 26 25 25 25 26 32 33 32 32 30 28 27 28 29 29 28 27 27

GFSWCAN_sfc_30mbdewp_045.txt.gz
Dewpoint
50 49 49 49 49 49 48 49 49 49 49 49 50 50 50 51 51 50 48 48 45 40 39 39 41 40 40 38 32 37 34 33 33 28 28 27 28 30 30 32 31 30 30 29 31 31 31 36 40 33 35 37 36 37
49 49 49 49 49 48 48 49 49 50 50 50 50 50 51 52 51 51 46 50 49 43 42 43 44 45 45 44 40 39 37 35 36 32 31 32 30 31 31 27 35 30 33 31 31 33 35 35 40 39 37 36 36 36
49 49 49 49 49 49 48 48 49 49 50 50 50 51 51 51 52 51 49 48 46 42 40 39 40 44 47 46 46 39 39 40 38 38 34 33 30 32 28 29 32 34 35 33 33 32 34 36 38 38 41 40 38 37
48 48 48 49 49 49 49 49 50 50 50 51 51 51 51 51 52 51 47 48 45 40 35 36 42 42 45 45 44 45 44 43 40 38 34 33 31 35 31 32 33 35 36 34 32 33 37 37 38 40 42 42 41 41
47 48 49 49 49 49 49 49 50 50 51 50 50 51 51 51 51 50 48 47 45 41 35 36 39 43 44 43 42 42 42 40 39 36 34 32 35 34 34 33 33 38 36 33 32 38 39 39 40 41 41 43 43 42
47 48 49 49 49 49 49 50 50 51 51 51 51 51 51 51 51 51 44 47 47 45 37 34 39 42 43 42 40 39 40 39 38 35 33 35 36 35 31 31 37 39 40 41 39 42 43 43 45 44 42 43 45 43
47 48 49 50 49 49 49 49 49 51 51 50 50 49 50 50 48 46 41 45 48 45 39 37 37 42 44 43 42 41 39 38 37 35 34 33 35 35 31 32 39 40 40 40 40 41 40 42 43 43 43 42 43 46
47 48 49 50 49 49 49 49 49 51 50 49 49 48 48 48 46 45 45 48 46 41 40 39 39 40 43 40 39 41 38 39 38 36 36 34 35 33 33 37 41 40 39 39 40 41 41 41 42 43 46 44 42 42
47 48 49 50 50 49 49 50 50 51 49 49 49 49 49 46 46 45 47 46 46 43 40 41 39 38 43 41 41 40 39 36 39 37 37 36 35 33 36 38 41 40 40 38 39 40 40 41 42 43 46 44 43 43
48 48 49 50 50 50 51 51 51 49 49 49 47 48 46 46 49 47 45 43 43 42 41 39 42 40 42 41 41 40 40 36 34 37 39 35 34 37 37 39 42 42 41 41 37 38 39 39 40 41 42 46 46 46
48 48 49 50 50 50 51 51 50 49 47 46 47 47 47 50 47 45 43 41 41 40 41 40 41 41 45 40 40 41 38 37 33 35 34 33 32 34 38 38 40 43 42 41 42 41 41 41 40 41 41 42 43 45
48 48 49 50 50 51 51 51 50 47 48 47 47 48 47 46 44 41 36 38 40 36 40 40 42 45 45 44 41 41 39 37 32 37 33 31 35 37 36 37 39 41 41 40 41 41 40 40 40 41 41 41 41 42
48 48 49 50 50 51 51 51 51 49 49 49 47 46 47 43 34 29 26 26 27 30 36 37 38 45 45 44 42 41 34 33 35 31 31 33 38 37 35 36 37 38 42 40 40 40 40 40 39 39 40 40 40 40
47 48 49 50 50 50 50 51 51 51 47 44 46 35 34 27 28 27 28 28 30 32 32 34 42 40 43 41 35 33 34 31 28 27 28 32 36 36 37 35 35 36 41 39 39 39 39 40 40 40 40 40 40 39
47 48 49 50 50 50 50 50 51 49 48 45 42 28 27 30 32 32 32 31 30 33 33 41 37 34 33 32 32 31 28 27 28 30 34 36 37 37 36 33 33 35 35 41 40 39 38 40 40 40 40 40 38 38
47 49 50 50 50 50 50 51 50 50 49 47 43 31 32 29 29 31 30 29 31 33 35 34 31 30 31 30 28 30 27 27 29 34 35 37 37 37 36 34 34 34 33 38 40 40 38 39 39 40 42 41 40 37
47 47 51 49 49 50 51 49 51 49 45 36 36 34 31 31 30 32 32 29 34 28 27 29 27 27 28 27 27 29 27 28 28 29 31 35 38 37 35 34 36 31 31 35 38 40 39 39 40 40 35 37 41 39
43 47 46 48 49 49 52 49 47 43 36 37 34 34 35 32 31 32 33 34 28 28 29 27 29 26 26 24 25 28 31 31 30 29 31 33 32 33 32 36 35 30 31 32 31 34 38 38 38 32 27 30 32 36
45 46 48 49 49 47 47 49 47 38 39 38 38 37 36 36 35 34 33 34 32 33 30 28 26 26 27 29 28 30 32 30 29 31 30 30 29 26 27 31 27 30 26 25 23 22 25 28 26 23 24 26 24 26
48 50 51 50 49 48 50 50 47 41 39 36 39 37 36 35 36 36 35 33 30 29 26 25 26 30 30 30 32 31 31 31 31 26 25 28 30 25 26 27 29 30 25 23 23 23 24 24 24 24 26 24 22 22
49 52 51 50 49 48 49 47 40 43 41 37 37 40 39 41 39 35 34 36 32 31 28 30 29 32 34 33 33 33 32 33 32 30 30 31 28 25 24 27 26 26 24 22 21 22 23 23 25 24 24 23 25 27
48 52 51 51 50 52 51 48 40 40 40 39 41 41 40 40 42 41 45 37 36 32 33 33 32 34 35 34 34 35 34 35 34 30 28 28 23 24 26 25 24 24 25 25 23 22 23 24 24 25 24 26 28 29
51 52 51 52 50 43 41 45 38 41 38 39 41 39 41 43 44 47 39 41 41 43 40 36 39 39 36 37 38 36 36 30 24 23 23 24 26 25 24 24 24 24 24 26 27 24 24 24 28 27 27 28 27 27
53 52 50 48 45 40 41 40 45 44 43 39 38 37 42 43 44 41 41 41 42 44 41 43 44 39 41 41 40 39 32 26 23 24 24 24 23 23 23 21 21 22 24 26 26 25 25 25 28 28 29 28 28 27
47 43 42 35 41 39 36 39 40 39 37 40 39 42 41 43 38 38 39 41 43 42 41 42 37 38 34 35 30 27 26 24 22 21 24 24 23 22 21 21 23 24 25 25 26 26 26 27 28 28 29 29 29 29
45 46 36 37 40 39 38 35 39 41 40 39 42 45 46 40 38 36 39 40 42 44 43 40 39 38 36 31 26 24 23 25 25 22 24 23 23 23 21 20 21 22 25 24 23 26 28 28 28 28 27 27 27 27
44 40 39 43 43 43 42 45 45 42 40 39 42 40 42 35 34 36 42 43 43 46 46 44 42 38 34 31 29 26 26 26 25 24 24 24 23 24 23 22 22 23 26 26 25 25 28 28 27 26 26 27 29 29
46 46 41 41 43 45 41 43 40 39 41 45 41 38 37 35 35 39 42 44 47 46 45 44 41 37 30 28 26 28 28 28 28 26 26 26 26 26 25 25 25 26 26 26 26 27 28 29 29 28 27 27 28 29
45 46 44 40 43 44 43 42 41 43 45 45 40 39 39 42 44 44 44 46 48 47 43 39 28 26 26 26 27 26 26 27 25 24 25 24 24 25 26 26 27 26 26 27 26 25 26 27 28 30 30 30 30 28
39 45 40 41 40 40 43 46 45 48 48 47 46 45 44 44 48 49 41 33 29 28 29 25 25 25 25 24 24 24 25 26 26 26 24 24 25 26 28 28 28 28 30 31 28 28 29 28 28 27 26 26 27 27
42 43 39 39 37 40 46 46 46 46 47 48 46 42 42 42 43 39 31 27 25 24 23 24 25 26 26 25 22 19 19 24 26 26 26 26 26 27 27 29 32 33 33 32 30 29 28 27 27 26 26 26 28 29
42 40 39 37 38 43 41 40 42 42 45 45 44 47 43 44 41 36 34 28 24 23 24 25 25 26 27 25 23 22 23 25 26 26 25 25 25 26 29 32 33 34 34 34 32 30 29 29 28 28 28 27 28 29
41 41 41 38 40 40 41 41 41 41 43 43 44 46 45 40 33 35 33 31 26 25 26 27 26 24 23 23 24 25 26 27 28 27 27 26 26 26 28 31 33 33 32 32 30 28 28 28 29 29 28 28 27 28

GFSWCAN_sfc_30mbdewp_048.txt.gz
Dewpoint
49 49 49 49 49 49 49 48 49 50 50 50 50 50 51 51 51 50 47 48 45 40 40 40 40 40 40 38 32 37 35 32 33 30 28 28 27 30 29 31 28 27 27 27 28 28 29 37 38 33 35 36 36 36
48 49 48 49 49 49 49 49 50 50 50 50 50 51 52 51 51 50 45 50 49 43 41 44 44 44 44 45 41 39 36 36 36 32 31 31 29 30 30 26 34 29 32 30 31 31 37 39 39 39 40 39 39 38
48 48 49 49 49 48 48 49 50 50 50 51 51 51 51 51 52 49 47 48 46 42 38 38 39 44 46 46 47 37 38 40 38 39 35 33 30 31 28 29 33 35 37 33 32 36 37 39 39 40 42 42 41 41
47 48 49 49 49 48 48 50 50 50 50 50 50 50 51 51 52 49 46 47 43 39 35 36 41 42 44 44 43 45 44 42 40 37 35 33 30 35 30 31 32 35 37 34 33 37 39 39 40 41 43 43 44 44
47 48 49 49 49 49 49 50 50 50 50 51 51 51 51 50 52 49 47 47 44 41 35 35 39 44 42 42 42 43 41 39 37 34 33 31 34 33 34 33 33 38 35 33 32 38 39 40 43 45 44 43 43 44
47 48 49 49 49 49 49 50 49 50 51 51 51 50 51 51 51 51 44 46 47 44 39 34 39 43 41 42 40 38 40 39 37 34 33 34 36 35 30 30 37 39 40 41 38 41 41 41 42 42 43 44 43 43
47 48 49 50 49 49 49 49 49 50 51 50 49 49 50 50 48 45 40 44 47 44 39 39 39 43 43 43 41 40 39 38 37 36 35 34 34 35 33 31 38 39 39 39 41 40 39 41 41 43 44 45 45 44
47 48 49 50 49 49 49 49 49 50 50 49 49 48 49 49 46 45 45 48 45 41 40 38 39 41 44 40 39 40 37 38 38 37 37 35 36 34 32 35 39 39 40 38 38 40 40 41 41 41 42 45 44 43
47 48 48 49 50 49 49 50 50 51 50 49 49 49 48 46 45 45 47 47 46 42 39 39 38 38 43 41 41 39 38 36 39 37 36 36 35 31 34 36 38 39 39 39 38 39 40 39 40 40 41 42 43 44
46 48 48 49 50 49 50 51 51 50 49 49 47 47 45 46 49 47 44 43 44 43 40 38 41 40 42 41 41 39 39 35 32 36 39 35 31 35 37 38 40 40 41 40 36 36 37 38 39 39 40 40 41 42
46 47 48 49 49 49 50 51 51 48 47 45 46 47 46 49 47 45 43 41 40 39 40 40 40 40 44 40 40 41 37 36 31 33 34 32 29 33 37 37 39 42 41 41 41 39 39 40 40 39 39 40 40 40
46 47 48 49 49 49 51 51 50 47 46 47 46 47 46 46 43 40 33 35 38 34 38 39 41 43 44 44 40 41 38 36 31 35 31 27 33 37 36 35 37 41 40 39 40 39 39 39 39 39 40 39 40 40
46 47 48 49 50 51 51 51 51 49 48 48 47 45 46 41 29 27 24 25 26 29 33 36 35 45 44 43 42 41 34 33 34 30 28 29 34 36 36 36 35 38 41 39 39 39 39 39 39 39 39 40 40 40
46 47 48 49 50 50 50 51 51 51 47 43 45 38 33 27 28 27 28 28 30 31 31 33 40 41 42 39 34 32 33 31 27 26 27 30 33 36 37 36 33 34 38 39 39 39 39 39 38 39 39 40 39 39
47 47 48 50 50 50 50 50 51 49 46 43 43 32 29 30 31 32 32 31 31 33 33 41 35 34 33 31 31 29 26 25 27 28 31 35 37 37 37 36 34 33 33 39 39 38 38 39 39 40 40 39 39 38
47 47 50 49 49 50 50 51 50 49 48 46 45 35 32 30 29 30 31 30 31 33 35 33 30 28 30 30 27 28 26 24 27 32 33 33 33 37 37 36 35 34 32 32 40 39 38 37 37 38 40 40 38 37
46 45 49 47 48 50 51 48 48 47 45 41 36 37 32 31 30 30 32 31 33 28 27 29 26 27 27 26 27 29 27 28 29 29 29 32 33 36 37 36 36 31 31 34 38 39 39 39 38 38 34 36 36 40
42 43 45 47 48 49 50 48 48 46 40 38 36 35 35 33 31 32 34 34 29 28 30 25 29 24 22 24 25 27 30 31 31 29 29 31 31 29 27 27 35 30 33 32 31 35 37 38 36 29 26 27 30 30
45 46 47 48 48 46 46 49 48 39 38 39 38 38 37 36 39 39 37 35 33 33 31 29 25 24 25 29 28 29 31 31 28 30 31 30 29 29 26 29 31 30 26 24 22 23 26 28 25 24 25 24 23 24
48 49 51 50 49 46 47 49 47 41 38 38 39 38 37 38 41 40 41 38 33 32 29 32 27 28 29 30 31 30 30 31 30 25 26 29 31 26 24 26 29 29 24 23 23 24 25 23 25 25 24 24 25 26
48 52 50 49 48 47 47 47 42 42 42 40 39 41 41 44 42 39 40 38 34 36 35 34 32 35 39 37 34 33 32 32 31 30 30 29 31 25 26 26 26 30 24 22 22 23 23 23 24 25 25 27 28 29
48 51 51 50 49 51 50 50 43 41 40 39 42 43 42 42 42 43 45 40 39 36 38 38 40 43 42 40 35 35 34 34 34 30 29 29 23 24 24 25 25 25 25 24 23 23 23 23 24 25 26 29 29 29
51 52 51 52 50 44 43 45 38 40 38 40 42 40 42 41 43 45 41 43 43 44 43 43 44 44 44 40 37 36 36 34 26 22 23 25 25 24 23 23 24 25 25 26 28 25 24 26 28 26 28 28 28 29
52 51 49 48 46 42 43 39 44 43 40 38 38 39 41 42 43 39 37 41 42 44 42 43 44 38 38 39 40 40 37 29 24 23 25 24 22 22 22 22 23 24 25 26 26 25 26 27 28 28 29 28 29 29
46 42 42 34 40 40 36 39 40 39 37 40 39 39 41 43 37 36 38 39 41 42 43 43 41 39 36 35 33 34 28 24 23 22 24 25 23 22 22 23 24 25 26 26 26 26 27 28 28 29 29 30 29 28
38 45 37 37 39 38 38 35 39 39 39 38 42 44 43 40 37 34 38 39 41 43 44 44 41 40 37 36 30 26 24 26 25 22 23 25 23 21 20 20 21 22 25 24 27 28 28 29 29 29 29 27 28 31
41 40 41 43 41 43 42 45 45 42 40 38 42 39 41 34 33 35 40 42 43 45 46 45 43 39 32 28 30 30 29 26 25 23 24 25 24 25 24 29 27 24 26 27 27 27 28 28 27 27 27 29 29 31
44 45 40 41 42 45 41 42 41 39 40 44 41 36 35 33 33 38 41 43 46 46 42 36 30 29 27 28 27 27 28 27 26 26 26 26 26 28 30 27 27 28 26 27 28 30 30 29 28 28 28 29 29 29
43 48 46 42 43 44 43 41 41 42 45 43 39 37 38 41 42 44 45 45 46 44 30 26 26 26 25 25 25 26 27 26 25 25 24 25 25 27 27 29 35 36 29 28 27 28 28 30 30 30 30 30 28 29
38 45 41 41 41 40 43 45 44 47 47 46 45 45 42 43 46 44 34 30 33 36 27 25 25 24 23 22 21 22 25 26 26 25 24 24 24 26 28 31 35 32 33 31 28 29 28 28 27 27 27 28 28 29
43 44 40 40 38 42 46 47 47 47 47 46 44 40 40 40 38 33 28 26 25 25 25 25 25 24 21 20 20 20 22 25 26 26 26 26 28 28 29 31 33 35 34 31 29 28 27 27 27 27 27 29 29 30
43 41 39 38 39 44 43 41 42 42 45 43 43 44 42 43 38 35 34 26 24 23 25 26 25 25 25 23 23 25 25 25 24 24 25 27 30 31 33 34 34 34 34 32 30 30 29 28 28 28 28 29 29 30
42 42 42 41 41 40 41 41 41 41 42 41 43 43 41 41 37 33 33 30 25 24 25 27 26 23 24 25 26 26 26 27 28 28 28 29 30 31 32 32 32 32 30 29 29 29 29 29 29 28 28 28 29 28